Observation data for Weinert on 11/18/2019      Previous  Date  Next       Current Mesonet Observations  Soil Data  Daily Summary Page  Observations in Plain Language
KWE1 180600Z 22005KT 05/01 A3005 RMK A01 T00510012  RH  076%=      5-min Rain = 0
KWE1 180601Z 22005KT 05/01 A3005 RMK A01 T00510012  RH  076%=      5-min Rain = 0
KWE1 180602Z 22004KT 05/01 A3005 RMK A01 T00500011  RH  076%=      5-min Rain = 0
KWE1 180603Z 22005KT 05/01 A3005 RMK A01 T00500011  RH  076%=      5-min Rain = 0
KWE1 180604Z 22005KT 05/01 A3005 RMK A01 T00500012  RH  076%=      5-min Rain = 0
KWE1 180605Z 22005KT 05/01 A3005 RMK A01 T00500012  RH  076%=      5-min Rain = 0
KWE1 180606Z 22005KT 05/01 A3005 RMK A01 T00500012  RH  076%=      5-min Rain = 0
KWE1 180607Z 22005KT 05/01 A3005 RMK A01 T00490011  RH  076%=      5-min Rain = 0
KWE1 180608Z 22005KT 05/01 A3005 RMK A01 T00490011  RH  076%=      5-min Rain = 0
KWE1 180609Z 22006KT 05/01 A3005 RMK A01 T00490011  RH  076%=      5-min Rain = 0
KWE1 180610Z 22005KT 05/01 A3005 RMK A01 T00490010  RH  076%=      5-min Rain = 0
KWE1 180611Z 22006KT 05/01 A3005 RMK A01 T00480011  RH  077%=      5-min Rain = 0
KWE1 180612Z 22006KT 05/01 A3005 RMK A01 T00480011  RH  077%=      5-min Rain = 0
KWE1 180613Z 22006KT 05/01 A3005 RMK A01 T00480011  RH  077%=      5-min Rain = 0
KWE1 180614Z 22006KT 05/01 A3005 RMK A01 T00490012  RH  077%=      5-min Rain = 0
KWE1 180615Z 22006KT 05/01 A3005 RMK A01 T00490012  RH  077%=      5-min Rain = 0
KWE1 180616Z 22006KT 05/01 A3005 RMK A01 T00490012  RH  077%=      5-min Rain = 0
KWE1 180617Z 22006KT 05/01 A3005 RMK A01 T00490012  RH  077%=      5-min Rain = 0
KWE1 180618Z 22006KT 05/01 A3005 RMK A01 T00480012  RH  077%=      5-min Rain = 0
KWE1 180619Z 22006KT 05/01 A3005 RMK A01 T00480012  RH  077%=      5-min Rain = 0
KWE1 180620Z 22006KT 05/01 A3005 RMK A01 T00480012  RH  077%=      5-min Rain = 0
KWE1 180621Z 22006KT 05/01 A3005 RMK A01 T00480012  RH  077%=      5-min Rain = 0
KWE1 180622Z 22005KT 05/01 A3005 RMK A01 T00480012  RH  077%=      5-min Rain = 0
KWE1 180623Z 22006KT 05/01 A3004 RMK A01 T00480012  RH  077%=      5-min Rain = 0
KWE1 180624Z 22006KT 05/01 A3004 RMK A01 T00480012  RH  078%=      5-min Rain = 0
KWE1 180625Z 22006KT 05/01 A3004 RMK A01 T00470012  RH  078%=      5-min Rain = 0
KWE1 180626Z 22005KT 05/01 A3004 RMK A01 T00470012  RH  078%=      5-min Rain = 0
KWE1 180627Z 22005KT 05/01 A3004 RMK A01 T00480012  RH  078%=      5-min Rain = 0
KWE1 180628Z 22005KT 05/01 A3004 RMK A01 T00470012  RH  078%=      5-min Rain = 0
KWE1 180629Z 22005KT 05/01 A3004 RMK A01 T00470012  RH  078%=      5-min Rain = 0
KWE1 180630Z 22005KT 05/01 A3004 RMK A01 T00470012  RH  078%=      5-min Rain = 0
KWE1 180631Z 22004KT 05/01 A3004 RMK A01 T00470012  RH  078%=      5-min Rain = 0
KWE1 180632Z 22004KT 05/01 A3004 RMK A01 T00470012  RH  078%=      5-min Rain = 0
KWE1 180633Z 22004KT 05/01 A3004 RMK A01 T00470012  RH  078%=      5-min Rain = 0
KWE1 180634Z 22004KT 05/01 A3004 RMK A01 T00470012  RH  078%=      5-min Rain = 0
KWE1 180635Z 23004KT 05/01 A3004 RMK A01 T00460011  RH  078%=      5-min Rain = 0
KWE1 180636Z 22004KT 05/01 A3004 RMK A01 T00460011  RH  078%=      5-min Rain = 0
KWE1 180637Z 22004KT 05/01 A3004 RMK A01 T00460011  RH  078%=      5-min Rain = 0
KWE1 180638Z 22004KT 05/01 A3004 RMK A01 T00450011  RH  078%=      5-min Rain = 0
KWE1 180639Z 21004KT 05/01 A3004 RMK A01 T00450011  RH  078%=      5-min Rain = 0
KWE1 180640Z 20004KT 05/01 A3004 RMK A01 T00450011  RH  079%=      5-min Rain = 0
KWE1 180641Z 20003KT 05/01 A3004 RMK A01 T00450011  RH  079%=      5-min Rain = 0
KWE1 180642Z 20003KT 05/01 A3004 RMK A01 T00450012  RH  079%=      5-min Rain = 0
KWE1 180643Z 21003KT 05/01 A3004 RMK A01 T00450013  RH  079%=      5-min Rain = 0
KWE1 180644Z 21004KT 05/01 A3004 RMK A01 T00460013  RH  079%=      5-min Rain = 0
KWE1 180645Z 21004KT 05/01 A3004 RMK A01 T00460013  RH  079%=      5-min Rain = 0
KWE1 180646Z 21004KT 05/01 A3004 RMK A01 T00460013  RH  079%=      5-min Rain = 0
KWE1 180647Z 20004KT 05/01 A3004 RMK A01 T00460013  RH  079%=      5-min Rain = 0
KWE1 180648Z 21004KT 05/01 A3004 RMK A01 T00470013  RH  079%=      5-min Rain = 0
KWE1 180649Z 21005KT 05/01 A3004 RMK A01 T00470014  RH  079%=      5-min Rain = 0
KWE1 180650Z 21005KT 05/01 A3004 RMK A01 T00470014  RH  079%=      5-min Rain = 0
KWE1 180651Z 21005KT 05/02 A3004 RMK A01 T00480015  RH  079%=      5-min Rain = 0
KWE1 180652Z 21005KT 05/02 A3004 RMK A01 T00490016  RH  079%=      5-min Rain = 0
KWE1 180653Z 21005KT 05/02 A3004 RMK A01 T00500017  RH  079%=      5-min Rain = 0
KWE1 180654Z 21005KT 05/02 A3004 RMK A01 T00500017  RH  079%=      5-min Rain = 0
KWE1 180655Z 22006KT 05/02 A3004 RMK A01 T00510017  RH  079%=      5-min Rain = 0
KWE1 180656Z 22006KT 05/02 A3004 RMK A01 T00510016  RH  078%=      5-min Rain = 0
KWE1 180657Z 22006KT 05/02 A3004 RMK A01 T00500016  RH  078%=      5-min Rain = 0
KWE1 180658Z 22006KT 05/02 A3004 RMK A01 T00500015  RH  078%=      5-min Rain = 0
KWE1 180659Z 21006KT 05/02 A3004 RMK A01 T00490015  RH  078%=      5-min Rain = 0
KWE1 180700Z 21007KT 05/02 A3004 RMK A01 T00490015  RH  079%=      5-min Rain = 0
KWE1 180701Z 21007KT 05/02 A3004 RMK A01 T00490015  RH  079%=      5-min Rain = 0
KWE1 180702Z 21007KT 05/02 A3004 RMK A01 T00490016  RH  079%=      5-min Rain = 0
KWE1 180703Z 21006KT 05/02 A3004 RMK A01 T00490016  RH  079%=      5-min Rain = 0
KWE1 180704Z 21007KT 05/02 A3004 RMK A01 T00490017  RH  079%=      5-min Rain = 0
KWE1 180705Z 22007KT 05/02 A3004 RMK A01 T00500017  RH  079%=      5-min Rain = 0
KWE1 180706Z 21006KT 05/02 A3004 RMK A01 T00500017  RH  079%=      5-min Rain = 0
KWE1 180707Z 21006KT 05/02 A3004 RMK A01 T00500017  RH  079%=      5-min Rain = 0
KWE1 180708Z 21006KT 05/02 A3004 RMK A01 T00500017  RH  079%=      5-min Rain = 0
KWE1 180709Z 21006KT 05/02 A3003 RMK A01 T00500017  RH  079%=      5-min Rain = 0
KWE1 180710Z 21006KT 05/02 A3003 RMK A01 T00490016  RH  079%=      5-min Rain = 0
KWE1 180711Z 21006KT 05/02 A3003 RMK A01 T00490016  RH  079%=      5-min Rain = 0
KWE1 180712Z 21006KT 05/02 A3003 RMK A01 T00490016  RH  079%=      5-min Rain = 0
KWE1 180713Z 21006KT 05/02 A3003 RMK A01 T00490016  RH  079%=      5-min Rain = 0
KWE1 180714Z 21006KT 05/02 A3003 RMK A01 T00490016  RH  080%=      5-min Rain = 0
KWE1 180715Z 21007KT 05/02 A3003 RMK A01 T00480016  RH  080%=      5-min Rain = 0
KWE1 180716Z 21007KT 05/02 A3003 RMK A01 T00480016  RH  080%=      5-min Rain = 0
KWE1 180717Z 21007KT 05/02 A3003 RMK A01 T00480017  RH  080%=      5-min Rain = 0
KWE1 180718Z 21007KT 05/02 A3003 RMK A01 T00480017  RH  080%=      5-min Rain = 0
KWE1 180719Z 21007KT 05/02 A3003 RMK A01 T00480016  RH  080%=      5-min Rain = 0
KWE1 180720Z 21006KT 05/02 A3003 RMK A01 T00480017  RH  080%=      5-min Rain = 0
KWE1 180721Z 21006KT 05/02 A3003 RMK A01 T00480016  RH  080%=      5-min Rain = 0
KWE1 180722Z 21006KT 05/02 A3003 RMK A01 T00480016  RH  080%=      5-min Rain = 0
KWE1 180723Z 21006KT 05/02 A3003 RMK A01 T00480016  RH  080%=      5-min Rain = 0
KWE1 180724Z 21006KT 05/02 A3003 RMK A01 T00480017  RH  080%=      5-min Rain = 0
KWE1 180725Z 21006KT 05/02 A3003 RMK A01 T00480017  RH  080%=      5-min Rain = 0
KWE1 180726Z 21005KT 05/02 A3003 RMK A01 T00490017  RH  080%=      5-min Rain = 0
KWE1 180727Z 21005KT 05/02 A3003 RMK A01 T00490016  RH  080%=      5-min Rain = 0
KWE1 180728Z 21006KT 05/02 A3003 RMK A01 T00490017  RH  080%=      5-min Rain = 0
KWE1 180729Z 20006KT 05/02 A3003 RMK A01 T00490016  RH  080%=      5-min Rain = 0
KWE1 180730Z 21006KT 05/02 A3003 RMK A01 T00490017  RH  080%=      5-min Rain = 0
KWE1 180731Z 21006KT 05/02 A3003 RMK A01 T00490017  RH  080%=      5-min Rain = 0
KWE1 180732Z 21006KT 05/02 A3003 RMK A01 T00500018  RH  080%=      5-min Rain = 0
KWE1 180733Z 21006KT 05/02 A3003 RMK A01 T00510018  RH  080%=      5-min Rain = 0
KWE1 180734Z 21007KT 05/02 A3003 RMK A01 T00510018  RH  079%=      5-min Rain = 0
KWE1 180735Z 21007KT 05/02 A3003 RMK A01 T00510017  RH  079%=      5-min Rain = 0
KWE1 180736Z 21006KT 05/02 A3003 RMK A01 T00510017  RH  079%=      5-min Rain = 0
KWE1 180737Z 21006KT 05/02 A3003 RMK A01 T00510017  RH  079%=      5-min Rain = 0
KWE1 180738Z 21005KT 05/02 A3003 RMK A01 T00510017  RH  079%=      5-min Rain = 0
KWE1 180739Z 21005KT 05/02 A3003 RMK A01 T00510017  RH  079%=      5-min Rain = 0
KWE1 180740Z 21005KT 05/02 A3003 RMK A01 T00510017  RH  079%=      5-min Rain = 0
KWE1 180741Z 21004KT 05/02 A3003 RMK A01 T00500016  RH  079%=      5-min Rain = 0
KWE1 180742Z 22004KT 05/02 A3003 RMK A01 T00500016  RH  079%=      5-min Rain = 0
KWE1 180743Z 22004KT 05/02 A3003 RMK A01 T00490016  RH  079%=      5-min Rain = 0
KWE1 180744Z 22004KT 05/02 A3003 RMK A01 T00490016  RH  079%=      5-min Rain = 0
KWE1 180745Z 22004KT 05/02 A3003 RMK A01 T00480015  RH  079%=      5-min Rain = 0
KWE1 180746Z 22005KT 05/01 A3003 RMK A01 T00480014  RH  079%=      5-min Rain = 0
KWE1 180747Z 22005KT 05/01 A3003 RMK A01 T00470014  RH  079%=      5-min Rain = 0
KWE1 180748Z 22005KT 05/01 A3003 RMK A01 T00460014  RH  079%=      5-min Rain = 0
KWE1 180749Z 22005KT 05/01 A3003 RMK A01 T00460014  RH  080%=      5-min Rain = 0
KWE1 180750Z 22005KT 05/01 A3003 RMK A01 T00460014  RH  080%=      5-min Rain = 0
KWE1 180751Z 22005KT 05/01 A3003 RMK A01 T00450014  RH  080%=      5-min Rain = 0
KWE1 180752Z 22005KT 05/01 A3003 RMK A01 T00450013  RH  080%=      5-min Rain = 0
KWE1 180753Z 22004KT 05/01 A3003 RMK A01 T00450014  RH  080%=      5-min Rain = 0
KWE1 180754Z 22005KT 05/01 A3003 RMK A01 T00450014  RH  080%=      5-min Rain = 0
KWE1 180755Z 22004KT 05/01 A3003 RMK A01 T00450014  RH  081%=      5-min Rain = 0
KWE1 180756Z 22005KT 05/01 A3003 RMK A01 T00450014  RH  081%=      5-min Rain = 0
KWE1 180757Z 22005KT 05/01 A3003 RMK A01 T00450014  RH  081%=      5-min Rain = 0
KWE1 180758Z 22005KT 05/01 A3003 RMK A01 T00450014  RH  080%=      5-min Rain = 0
KWE1 180759Z 22004KT 05/01 A3003 RMK A01 T00450014  RH  081%=      5-min Rain = 0
KWE1 180800Z 22005KT 05/02 A3003 RMK A01 T00450015  RH  081%=      5-min Rain = 0
KWE1 180801Z 22004KT 05/02 A3003 RMK A01 T00450015  RH  081%=      5-min Rain = 0
KWE1 180802Z 21004KT 05/01 A3003 RMK A01 T00450014  RH  081%=      5-min Rain = 0
KWE1 180803Z 21004KT 05/01 A3003 RMK A01 T00450014  RH  081%=      5-min Rain = 0
KWE1 180804Z 21004KT 05/02 A3003 RMK A01 T00450015  RH  081%=      5-min Rain = 0
KWE1 180805Z 21004KT 05/02 A3003 RMK A01 T00450015  RH  081%=      5-min Rain = 0
KWE1 180806Z 21004KT 05/02 A3003 RMK A01 T00450015  RH  081%=      5-min Rain = 0
KWE1 180807Z 20003KT 05/02 A3003 RMK A01 T00450015  RH  081%=      5-min Rain = 0
KWE1 180808Z 20003KT 05/02 A3003 RMK A01 T00450015  RH  081%=      5-min Rain = 0
KWE1 180809Z 20003KT 05/02 A3003 RMK A01 T00450016  RH  081%=      5-min Rain = 0
KWE1 180810Z 20003KT 05/02 A3003 RMK A01 T00450015  RH  081%=      5-min Rain = 0
KWE1 180811Z 20003KT 05/02 A3003 RMK A01 T00450015  RH  081%=      5-min Rain = 0
KWE1 180812Z 20003KT 05/02 A3003 RMK A01 T00450015  RH  081%=      5-min Rain = 0
KWE1 180813Z 20003KT 05/02 A3002 RMK A01 T00450015  RH  081%=      5-min Rain = 0
KWE1 180814Z 20003KT 04/01 A3002 RMK A01 T00440014  RH  081%=      5-min Rain = 0
KWE1 180815Z 20003KT 04/01 A3002 RMK A01 T00440014  RH  081%=      5-min Rain = 0
KWE1 180816Z 20004KT 04/02 A3002 RMK A01 T00440015  RH  081%=      5-min Rain = 0
KWE1 180817Z 19004KT 04/02 A3002 RMK A01 T00440015  RH  081%=      5-min Rain = 0
KWE1 180818Z 20004KT 04/02 A3002 RMK A01 T00440015  RH  082%=      5-min Rain = 0
KWE1 180819Z 20004KT 04/02 A3002 RMK A01 T00440015  RH  082%=      5-min Rain = 0
KWE1 180820Z 19004KT 04/02 A3002 RMK A01 T00440016  RH  082%=      5-min Rain = 0
KWE1 180821Z 19003KT 04/02 A3002 RMK A01 T00440015  RH  082%=      5-min Rain = 0
KWE1 180822Z 19003KT 04/02 A3002 RMK A01 T00430015  RH  082%=      5-min Rain = 0
KWE1 180823Z 19003KT 04/02 A3002 RMK A01 T00430015  RH  082%=      5-min Rain = 0
KWE1 180824Z 20003KT 04/02 A3002 RMK A01 T00430015  RH  082%=      5-min Rain = 0
KWE1 180825Z 20003KT 04/02 A3002 RMK A01 T00430015  RH  082%=      5-min Rain = 0
KWE1 180826Z 20003KT 04/02 A3002 RMK A01 T00430015  RH  082%=      5-min Rain = 0
KWE1 180827Z 20003KT 04/02 A3002 RMK A01 T00430016  RH  083%=      5-min Rain = 0
KWE1 180828Z 21003KT 04/02 A3002 RMK A01 T00430016  RH  083%=      5-min Rain = 0
KWE1 180829Z 21003KT 04/02 A3002 RMK A01 T00440017  RH  083%=      5-min Rain = 0
KWE1 180830Z 21003KT 04/02 A3002 RMK A01 T00440017  RH  083%=      5-min Rain = 0
KWE1 180831Z 21003KT 04/02 A3002 RMK A01 T00440016  RH  082%=      5-min Rain = 0
KWE1 180832Z 21004KT 04/02 A3001 RMK A01 T00440016  RH  082%=      5-min Rain = 0
KWE1 180833Z 21003KT 04/02 A3001 RMK A01 T00440016  RH  082%=      5-min Rain = 0
KWE1 180834Z 22004KT 04/02 A3001 RMK A01 T00440016  RH  082%=      5-min Rain = 0
KWE1 180835Z 22003KT 04/02 A3001 RMK A01 T00440016  RH  082%=      5-min Rain = 0
KWE1 180836Z 22004KT 04/02 A3001 RMK A01 T00440017  RH  082%=      5-min Rain = 0
KWE1 180837Z 22004KT 05/02 A3001 RMK A01 T00450017  RH  082%=      5-min Rain = 0
KWE1 180838Z 22004KT 04/01 A3001 RMK A01 T00440014  RH  081%=      5-min Rain = 0
KWE1 180839Z 22004KT 04/01 A3001 RMK A01 T00430014  RH  081%=      5-min Rain = 0
KWE1 180840Z 22004KT 04/02 A3001 RMK A01 T00430015  RH  082%=      5-min Rain = 0
KWE1 180841Z 21004KT 04/02 A3001 RMK A01 T00440016  RH  082%=      5-min Rain = 0
KWE1 180842Z 21004KT 04/02 A3001 RMK A01 T00440015  RH  082%=      5-min Rain = 0
KWE1 180843Z 21003KT 04/02 A3001 RMK A01 T00440015  RH  082%=      5-min Rain = 0
KWE1 180844Z 21003KT 04/01 A3001 RMK A01 T00430014  RH  082%=      5-min Rain = 0
KWE1 180845Z 21003KT 04/02 A3001 RMK A01 T00430015  RH  082%=      5-min Rain = 0
KWE1 180846Z 21003KT 04/02 A3001 RMK A01 T00430015  RH  082%=      5-min Rain = 0
KWE1 180847Z 21003KT 04/02 A3001 RMK A01 T00430016  RH  082%=      5-min Rain = 0
KWE1 180848Z 21003KT 04/02 A3001 RMK A01 T00430016  RH  083%=      5-min Rain = 0
KWE1 180849Z 21003KT 04/02 A3001 RMK A01 T00430016  RH  083%=      5-min Rain = 0
KWE1 180850Z 21003KT 04/02 A3001 RMK A01 T00430015  RH  082%=      5-min Rain = 0
KWE1 180851Z 20002KT 04/02 A3001 RMK A01 T00430016  RH  083%=      5-min Rain = 0
KWE1 180852Z 20002KT 04/02 A3001 RMK A01 T00430016  RH  083%=      5-min Rain = 0
KWE1 180853Z 21002KT 04/02 A3001 RMK A01 T00420015  RH  082%=      5-min Rain = 0
KWE1 180854Z 20002KT 04/01 A3001 RMK A01 T00420014  RH  082%=      5-min Rain = 0
KWE1 180855Z 20002KT 04/01 A3001 RMK A01 T00410014  RH  082%=      5-min Rain = 0
KWE1 180856Z 20002KT 04/01 A3001 RMK A01 T00400013  RH  083%=      5-min Rain = 0
KWE1 180857Z 21002KT 04/01 A3001 RMK A01 T00400013  RH  083%=      5-min Rain = 0
KWE1 180858Z 21002KT 04/01 A3001 RMK A01 T00390013  RH  083%=      5-min Rain = 0
KWE1 180859Z 21002KT 04/01 A3001 RMK A01 T00390013  RH  083%=      5-min Rain = 0
KWE1 180900Z 21003KT 04/01 A3001 RMK A01 T00390013  RH  083%=      5-min Rain = 0
KWE1 180901Z 21003KT 04/01 A3001 RMK A01 T00380013  RH  084%=      5-min Rain = 0
KWE1 180902Z 21003KT 04/01 A3001 RMK A01 T00380013  RH  084%=      5-min Rain = 0
KWE1 180903Z 21002KT 04/01 A3001 RMK A01 T00380014  RH  084%=      5-min Rain = 0
KWE1 180904Z 21002KT 04/01 A3001 RMK A01 T00380014  RH  084%=      5-min Rain = 0
KWE1 180905Z 21002KT 04/02 A3001 RMK A01 T00390015  RH  084%=      5-min Rain = 0
KWE1 180906Z 21002KT 04/01 A3001 RMK A01 T00380014  RH  084%=      5-min Rain = 0
KWE1 180907Z 20002KT 04/02 A3001 RMK A01 T00380015  RH  085%=      5-min Rain = 0
KWE1 180908Z 20002KT 04/02 A3001 RMK A01 T00380015  RH  085%=      5-min Rain = 0
KWE1 180909Z 19001KT 04/02 A3001 RMK A01 T00390015  RH  085%=      5-min Rain = 0
KWE1 180910Z 19001KT 04/02 A30 RMK A01 T00390016  RH  085%=      5-min Rain = 0
KWE1 180911Z 19001KT 04/02 A30 RMK A01 T00390015  RH  084%=      5-min Rain = 0
KWE1 180912Z 19001KT 04/01 A30 RMK A01 T00380013  RH  084%=      5-min Rain = 0
KWE1 180913Z 19002KT 04/01 A30 RMK A01 T00380013  RH  084%=      5-min Rain = 0
KWE1 180914Z 19002KT 04/01 A30 RMK A01 T00380014  RH  084%=      5-min Rain = 0
KWE1 180915Z 19003KT 04/02 A30 RMK A01 T00390016  RH  085%=      5-min Rain = 0
KWE1 180916Z 20003KT 04/02 A30 RMK A01 T00390016  RH  085%=      5-min Rain = 0
KWE1 180917Z 20003KT 04/02 A30 RMK A01 T00390016  RH  085%=      5-min Rain = 0
KWE1 180918Z 20003KT 04/02 A30 RMK A01 T00390016  RH  085%=      5-min Rain = 0
KWE1 180919Z 20004KT 04/02 A30 RMK A01 T00390015  RH  084%=      5-min Rain = 0
KWE1 180920Z 20004KT 04/01 A30 RMK A01 T00390014  RH  084%=      5-min Rain = 0
KWE1 180921Z 20004KT 04/01 A30 RMK A01 T00380014  RH  084%=      5-min Rain = 0
KWE1 180922Z 20004KT 04/02 A30 RMK A01 T00390015  RH  084%=      5-min Rain = 0
KWE1 180923Z 20004KT 04/02 A30 RMK A01 T00380015  RH  085%=      5-min Rain = 0
KWE1 180924Z 21003KT 04/02 A30 RMK A01 T00390015  RH  085%=      5-min Rain = 0
KWE1 180925Z 21003KT 04/02 A30 RMK A01 T00390015  RH  085%=      5-min Rain = 0
KWE1 180926Z 20003KT 04/02 A30 RMK A01 T00390015  RH  085%=      5-min Rain = 0
KWE1 180927Z 20003KT 04/02 A30 RMK A01 T00390015  RH  085%=      5-min Rain = 0
KWE1 180928Z 20003KT 04/02 A30 RMK A01 T00390015  RH  084%=      5-min Rain = 0
KWE1 180929Z 20003KT 04/02 A30 RMK A01 T00390015  RH  084%=      5-min Rain = 0
KWE1 180930Z 20003KT 04/02 A30 RMK A01 T00390015  RH  084%=      5-min Rain = 0
KWE1 180931Z 21003KT 04/02 A30 RMK A01 T00390015  RH  084%=      5-min Rain = 0
KWE1 180932Z 21002KT 04/02 A30 RMK A01 T00390015  RH  085%=      5-min Rain = 0
KWE1 180933Z 21002KT 04/02 A30 RMK A01 T00390016  RH  085%=      5-min Rain = 0
KWE1 180934Z 21003KT 04/02 A30 RMK A01 T00400017  RH  085%=      5-min Rain = 0
KWE1 180935Z 21003KT 04/02 A30 RMK A01 T00400017  RH  085%=      5-min Rain = 0
KWE1 180936Z 21003KT 04/02 A30 RMK A01 T00410018  RH  085%=      5-min Rain = 0
KWE1 180937Z 21003KT 04/02 A30 RMK A01 T00420019  RH  085%=      5-min Rain = 0
KWE1 180938Z 21003KT 04/02 A30 RMK A01 T00430019  RH  084%=      5-min Rain = 0
KWE1 180939Z 21004KT 04/02 A30 RMK A01 T00430017  RH  084%=      5-min Rain = 0
KWE1 180940Z 21004KT 04/02 A30 RMK A01 T00420016  RH  083%=      5-min Rain = 0
KWE1 180941Z 21004KT 04/02 A30 RMK A01 T00410015  RH  083%=      5-min Rain = 0
KWE1 180942Z 21005KT 04/01 A30 RMK A01 T00400014  RH  083%=      5-min Rain = 0
KWE1 180943Z 21005KT 04/01 A30 RMK A01 T00400014  RH  084%=      5-min Rain = 0
KWE1 180944Z 21005KT 04/02 A30 RMK A01 T00390015  RH  084%=      5-min Rain = 0
KWE1 180945Z 21005KT 04/02 A30 RMK A01 T00400017  RH  085%=      5-min Rain = 0
KWE1 180946Z 21005KT 04/02 A30 RMK A01 T00410018  RH  085%=      5-min Rain = 0
KWE1 180947Z 21004KT 04/02 A30 RMK A01 T00420018  RH  085%=      5-min Rain = 0
KWE1 180948Z 20004KT 04/02 A30 RMK A01 T00420019  RH  085%=      5-min Rain = 0
KWE1 180949Z 20004KT 04/02 A30 RMK A01 T00420019  RH  085%=      5-min Rain = 0
KWE1 180950Z 19005KT 04/02 A30 RMK A01 T00420018  RH  084%=      5-min Rain = 0
KWE1 180951Z 18006KT 04/02 A30 RMK A01 T00410015  RH  083%=      5-min Rain = 0
KWE1 180952Z 18005KT 04/01 A30 RMK A01 T00390013  RH  083%=      5-min Rain = 0
KWE1 180953Z 18004KT 04/01 A30 RMK A01 T00380013  RH  083%=      5-min Rain = 0
KWE1 180954Z 18004KT 04/01 A30 RMK A01 T00380013  RH  084%=      5-min Rain = 0
KWE1 180955Z 19004KT 04/01 A30 RMK A01 T00370013  RH  084%=      5-min Rain = 0
KWE1 180956Z 19004KT 04/01 A30 RMK A01 T00370013  RH  085%=      5-min Rain = 0
KWE1 180957Z 19004KT 04/01 A30 RMK A01 T00370014  RH  085%=      5-min Rain = 0
KWE1 180958Z 19004KT 04/02 A30 RMK A01 T00370015  RH  085%=      5-min Rain = 0
KWE1 180959Z 20004KT 04/02 A30 RMK A01 T00380016  RH  086%=      5-min Rain = 0
KWE1 181000Z 20005KT 04/02 A30 RMK A01 T00380016  RH  086%=      5-min Rain = 0
KWE1 181001Z 20005KT 04/02 A30 RMK A01 T00380017  RH  086%=      5-min Rain = 0
KWE1 181002Z 20005KT 04/02 A30 RMK A01 T00390017  RH  086%=      5-min Rain = 0
KWE1 181003Z 20005KT 04/02 A30 RMK A01 T00390017  RH  086%=      5-min Rain = 0
KWE1 181004Z 20005KT 04/02 A30 RMK A01 T00400018  RH  086%=      5-min Rain = 0
KWE1 181005Z 20005KT 04/02 A30 RMK A01 T00400019  RH  086%=      5-min Rain = 0
KWE1 181006Z 21004KT 04/02 A30 RMK A01 T00410019  RH  085%=      5-min Rain = 0
KWE1 181007Z 20004KT 04/02 A30 RMK A01 T00410019  RH  085%=      5-min Rain = 0
KWE1 181008Z 20004KT 04/02 A30 RMK A01 T00420019  RH  085%=      5-min Rain = 0
KWE1 181009Z 20004KT 04/02 A30 RMK A01 T00420019  RH  085%=      5-min Rain = 0
KWE1 181010Z 20004KT 04/02 A30 RMK A01 T00420018  RH  085%=      5-min Rain = 0
KWE1 181011Z 20004KT 04/02 A30 RMK A01 T00420018  RH  084%=      5-min Rain = 0
KWE1 181012Z 20005KT 04/02 A30 RMK A01 T00420018  RH  084%=      5-min Rain = 0
KWE1 181013Z 20005KT 04/02 A30 RMK A01 T00410017  RH  084%=      5-min Rain = 0
KWE1 181014Z 20005KT 04/02 A30 RMK A01 T00410017  RH  084%=      5-min Rain = 0
KWE1 181015Z 20005KT 04/02 A30 RMK A01 T00400017  RH  085%=      5-min Rain = 0
KWE1 181016Z 20005KT 04/02 A30 RMK A01 T00410017  RH  085%=      5-min Rain = 0
KWE1 181017Z 20005KT 04/02 A30 RMK A01 T00400017  RH  085%=      5-min Rain = 0
KWE1 181018Z 20005KT 04/02 A30 RMK A01 T00410017  RH  085%=      5-min Rain = 0
KWE1 181019Z 20005KT 04/02 A30 RMK A01 T00410017  RH  085%=      5-min Rain = 0
KWE1 181020Z 20005KT 04/02 A30 RMK A01 T00410017  RH  085%=      5-min Rain = 0
KWE1 181021Z 20005KT 04/02 A30 RMK A01 T00410018  RH  085%=      5-min Rain = 0
KWE1 181022Z 20005KT 04/02 A2999 RMK A01 T00410018  RH  085%=      5-min Rain = 0
KWE1 181023Z 19006KT 04/02 A2999 RMK A01 T00410018  RH  085%=      5-min Rain = 0
KWE1 181024Z 19006KT 04/02 A2999 RMK A01 T00410018  RH  085%=      5-min Rain = 0
KWE1 181025Z 20006KT 04/02 A2999 RMK A01 T00410018  RH  085%=      5-min Rain = 0
KWE1 181026Z 20006KT 04/02 A2999 RMK A01 T00420019  RH  085%=      5-min Rain = 0
KWE1 181027Z 20006KT 04/02 A2999 RMK A01 T00420019  RH  085%=      5-min Rain = 0
KWE1 181028Z 20006KT 04/02 A2999 RMK A01 T00430020  RH  085%=      5-min Rain = 0
KWE1 181029Z 20006KT 05/02 A2999 RMK A01 T00450021  RH  085%=      5-min Rain = 0
KWE1 181030Z 20007KT 05/02 A2999 RMK A01 T00460021  RH  084%=      5-min Rain = 0
KWE1 181031Z 20006KT 05/02 A2999 RMK A01 T00460021  RH  084%=      5-min Rain = 0
KWE1 181032Z 20006KT 05/02 A2999 RMK A01 T00470022  RH  084%=      5-min Rain = 0
KWE1 181033Z 20007KT 05/02 A2999 RMK A01 T00480023  RH  083%=      5-min Rain = 0
KWE1 181034Z 20006KT 05/02 A2999 RMK A01 T00490023  RH  083%=      5-min Rain = 0
KWE1 181035Z 21006KT 05/02 A2999 RMK A01 T00500024  RH  083%=      5-min Rain = 0
KWE1 181036Z 20006KT 05/02 A2999 RMK A01 T00520024  RH  082%=      5-min Rain = 0
KWE1 181037Z 20006KT 05/02 A2999 RMK A01 T00520024  RH  082%=      5-min Rain = 0
KWE1 181038Z 20006KT 05/02 A2999 RMK A01 T00530024  RH  081%=      5-min Rain = 0
KWE1 181039Z 20006KT 05/02 A2999 RMK A01 T00530023  RH  081%=      5-min Rain = 0
KWE1 181040Z 20006KT 05/02 A2999 RMK A01 T00530023  RH  081%=      5-min Rain = 0
KWE1 181041Z 20006KT 05/02 A2999 RMK A01 T00530023  RH  081%=      5-min Rain = 0
KWE1 181042Z 20005KT 05/02 A2999 RMK A01 T00540023  RH  081%=      5-min Rain = 0
KWE1 181043Z 20006KT 05/02 A2999 RMK A01 T00540023  RH  081%=      5-min Rain = 0
KWE1 181044Z 21006KT 05/02 A2999 RMK A01 T00540023  RH  081%=      5-min Rain = 0
KWE1 181045Z 21006KT 05/02 A2999 RMK A01 T00540023  RH  081%=      5-min Rain = 0
KWE1 181046Z 21005KT 05/02 A2999 RMK A01 T00540023  RH  081%=      5-min Rain = 0
KWE1 181047Z 21006KT 05/02 A2999 RMK A01 T00540023  RH  081%=      5-min Rain = 0
KWE1 181048Z 21006KT 05/02 A2999 RMK A01 T00530023  RH  081%=      5-min Rain = 0
KWE1 181049Z 20006KT 05/02 A2999 RMK A01 T00530023  RH  081%=      5-min Rain = 0
KWE1 181050Z 21006KT 05/02 A2999 RMK A01 T00530023  RH  081%=      5-min Rain = 0
KWE1 181051Z 21007KT 05/02 A2999 RMK A01 T00530023  RH  081%=      5-min Rain = 0
KWE1 181052Z 21007KT 05/02 A2998 RMK A01 T00530023  RH  081%=      5-min Rain = 0
KWE1 181053Z 21007KT 05/02 A2998 RMK A01 T00530023  RH  081%=      5-min Rain = 0
KWE1 181054Z 21007KT 05/02 A2998 RMK A01 T00530023  RH  081%=      5-min Rain = 0
KWE1 181055Z 20007KT 05/02 A2998 RMK A01 T00530023  RH  081%=      5-min Rain = 0
KWE1 181056Z 20007KT 05/02 A2998 RMK A01 T00530024  RH  081%=      5-min Rain = 0
KWE1 181057Z 20006KT 05/02 A2998 RMK A01 T00530024  RH  081%=      5-min Rain = 0
KWE1 181058Z 19006KT 05/02 A2998 RMK A01 T00530024  RH  081%=      5-min Rain = 0
KWE1 181059Z 19006KT 05/02 A2998 RMK A01 T00540024  RH  081%=      5-min Rain = 0
KWE1 181100Z 19006KT 05/02 A2998 RMK A01 T00540024  RH  081%=      5-min Rain = 0
KWE1 181101Z 19006KT 05/02 A2998 RMK A01 T00540023  RH  081%=      5-min Rain = 0
KWE1 181102Z 19005KT 05/02 A2998 RMK A01 T00540023  RH  081%=      5-min Rain = 0
KWE1 181103Z 19005KT 05/02 A2998 RMK A01 T00540023  RH  080%=      5-min Rain = 0
KWE1 181104Z 20005KT 05/02 A2998 RMK A01 T00540023  RH  080%=      5-min Rain = 0
KWE1 181105Z 20005KT 05/02 A2998 RMK A01 T00540023  RH  080%=      5-min Rain = 0
KWE1 181106Z 19005KT 05/02 A2998 RMK A01 T00540023  RH  080%=      5-min Rain = 0
KWE1 181107Z 18004KT 05/02 A2998 RMK A01 T00540022  RH  080%=      5-min Rain = 0
KWE1 181108Z 18004KT 05/02 A2999 RMK A01 T00530022  RH  080%=      5-min Rain = 0
KWE1 181109Z 18005KT 05/02 A2999 RMK A01 T00520021  RH  080%=      5-min Rain = 0
KWE1 181110Z 19005KT 05/02 A2999 RMK A01 T00510020  RH  081%=      5-min Rain = 0
KWE1 181111Z 19004KT 05/02 A2999 RMK A01 T00500020  RH  081%=      5-min Rain = 0
KWE1 181112Z 18004KT 05/02 A2999 RMK A01 T00500020  RH  081%=      5-min Rain = 0
KWE1 181113Z 18004KT 05/02 A2999 RMK A01 T00490020  RH  081%=      5-min Rain = 0
KWE1 181114Z 19004KT 05/02 A2999 RMK A01 T00490020  RH  081%=      5-min Rain = 0
KWE1 181115Z 19004KT 05/02 A2999 RMK A01 T00480020  RH  082%=      5-min Rain = 0
KWE1 181116Z 19004KT 05/02 A2999 RMK A01 T00480020  RH  082%=      5-min Rain = 0
KWE1 181117Z 19004KT 05/02 A2999 RMK A01 T00480019  RH  082%=      5-min Rain = 0
KWE1 181118Z 19004KT 05/02 A2999 RMK A01 T00470019  RH  082%=      5-min Rain = 0
KWE1 181119Z 19004KT 05/02 A2999 RMK A01 T00470019  RH  082%=      5-min Rain = 0
KWE1 181120Z 20004KT 05/02 A2999 RMK A01 T00470019  RH  082%=      5-min Rain = 0
KWE1 181121Z 19004KT 05/02 A2998 RMK A01 T00460019  RH  082%=      5-min Rain = 0
KWE1 181122Z 19005KT 05/02 A2998 RMK A01 T00460019  RH  083%=      5-min Rain = 0
KWE1 181123Z 19004KT 05/02 A2998 RMK A01 T00460019  RH  083%=      5-min Rain = 0
KWE1 181124Z 19004KT 05/02 A2999 RMK A01 T00460019  RH  083%=      5-min Rain = 0
KWE1 181125Z 19004KT 05/02 A2999 RMK A01 T00460019  RH  083%=      5-min Rain = 0
KWE1 181126Z 18004KT 05/02 A2999 RMK A01 T00450019  RH  083%=      5-min Rain = 0
KWE1 181127Z 18003KT 05/02 A2999 RMK A01 T00450019  RH  083%=      5-min Rain = 0
KWE1 181128Z 17003KT 05/02 A2999 RMK A01 T00450019  RH  083%=      5-min Rain = 0
KWE1 181129Z 17003KT 05/02 A2999 RMK A01 T00450018  RH  083%=      5-min Rain = 0
KWE1 181130Z 17004KT 04/02 A2999 RMK A01 T00440018  RH  083%=      5-min Rain = 0
KWE1 181131Z 18004KT 04/02 A2999 RMK A01 T00440018  RH  083%=      5-min Rain = 0
KWE1 181132Z 19003KT 04/02 A2999 RMK A01 T00440018  RH  083%=      5-min Rain = 0
KWE1 181133Z 18003KT 04/02 A2999 RMK A01 T00440018  RH  083%=      5-min Rain = 0
KWE1 181134Z 18003KT 04/02 A2999 RMK A01 T00430018  RH  083%=      5-min Rain = 0
KWE1 181135Z 18004KT 04/02 A2999 RMK A01 T00430017  RH  083%=      5-min Rain = 0
KWE1 181136Z 18004KT 04/02 A2999 RMK A01 T00430017  RH  083%=      5-min Rain = 0
KWE1 181137Z 18004KT 04/02 A2999 RMK A01 T00420016  RH  083%=      5-min Rain = 0
KWE1 181138Z 19004KT 04/02 A2999 RMK A01 T00410016  RH  084%=      5-min Rain = 0
KWE1 181139Z 19004KT 04/02 A2999 RMK A01 T00410016  RH  084%=      5-min Rain = 0
KWE1 181140Z 18004KT 04/02 A2999 RMK A01 T00410016  RH  084%=      5-min Rain = 0
KWE1 181141Z 18005KT 04/02 A2999 RMK A01 T00410017  RH  084%=      5-min Rain = 0
KWE1 181142Z 19005KT 04/02 A2999 RMK A01 T00410017  RH  084%=      5-min Rain = 0
KWE1 181143Z 19005KT 04/02 A2999 RMK A01 T00410017  RH  085%=      5-min Rain = 0
KWE1 181144Z 19005KT 04/02 A2999 RMK A01 T00410017  RH  085%=      5-min Rain = 0
KWE1 181145Z 18005KT 04/02 A2999 RMK A01 T00410018  RH  085%=      5-min Rain = 0
KWE1 181146Z 18005KT 04/02 A2999 RMK A01 T00410018  RH  085%=      5-min Rain = 0
KWE1 181147Z 18005KT 04/02 A2999 RMK A01 T00420018  RH  085%=      5-min Rain = 0
KWE1 181148Z 18005KT 04/02 A2999 RMK A01 T00420018  RH  085%=      5-min Rain = 0
KWE1 181149Z 17004KT 04/02 A2999 RMK A01 T00420019  RH  085%=      5-min Rain = 0
KWE1 181150Z 17005KT 04/02 A2999 RMK A01 T00420018  RH  085%=      5-min Rain = 0
KWE1 181151Z 18005KT 04/02 A2999 RMK A01 T00420018  RH  084%=      5-min Rain = 0
KWE1 181152Z 18005KT 04/02 A2999 RMK A01 T00420017  RH  084%=      5-min Rain = 0
KWE1 181153Z 19005KT 04/02 A2999 RMK A01 T00410018  RH  084%=      5-min Rain = 0
KWE1 181154Z 19005KT 04/02 A2999 RMK A01 T00420018  RH  085%=      5-min Rain = 0
KWE1 181155Z 19005KT 04/02 A2999 RMK A01 T00410018  RH  085%=      5-min Rain = 0
KWE1 181156Z 18005KT 04/02 A2999 RMK A01 T00420018  RH  085%=      5-min Rain = 0
KWE1 181157Z 18005KT 04/02 A30 RMK A01 T00410017  RH  084%=      5-min Rain = 0
KWE1 181158Z 18004KT 04/02 A30 RMK A01 T00410017  RH  084%=      5-min Rain = 0
KWE1 181159Z 19005KT 04/02 A30 RMK A01 T00410017  RH  084%=      5-min Rain = 0
KWE1 181200Z 18005KT 04/02 A30 RMK A01 T00410017  RH  084%=      5-min Rain = 0
KWE1 181201Z 18005KT 04/02 A30 RMK A01 T00410017  RH  084%=      5-min Rain = 0
KWE1 181202Z 18005KT 04/02 A30 RMK A01 T00410017  RH  084%=      5-min Rain = 0
KWE1 181203Z 18005KT 04/02 A2999 RMK A01 T00410016  RH  084%=      5-min Rain = 0
KWE1 181204Z 18005KT 04/02 A2999 RMK A01 T00410017  RH  084%=      5-min Rain = 0
KWE1 181205Z 17005KT 04/02 A2999 RMK A01 T00410017  RH  085%=      5-min Rain = 0
KWE1 181206Z 17005KT 04/02 A2999 RMK A01 T00400017  RH  085%=      5-min Rain = 0
KWE1 181207Z 17005KT 04/02 A2999 RMK A01 T00410017  RH  085%=      5-min Rain = 0
KWE1 181208Z 15004KT 04/02 A2999 RMK A01 T00410017  RH  084%=      5-min Rain = 0
KWE1 181209Z 17004KT 04/02 A2999 RMK A01 T00410017  RH  084%=      5-min Rain = 0
KWE1 181210Z 17005KT 04/02 A2999 RMK A01 T00410017  RH  084%=      5-min Rain = 0
KWE1 181211Z 16005KT 04/02 A2999 RMK A01 T00410017  RH  084%=      5-min Rain = 0
KWE1 181212Z 17005KT 04/02 A2999 RMK A01 T00410017  RH  084%=      5-min Rain = 0
KWE1 181213Z 17005KT 04/02 A2999 RMK A01 T00410017  RH  084%=      5-min Rain = 0
KWE1 181214Z 17005KT 04/02 A2999 RMK A01 T00410016  RH  084%=      5-min Rain = 0
KWE1 181215Z 17005KT 04/02 A2998 RMK A01 T00410016  RH  084%=      5-min Rain = 0
KWE1 181216Z 17005KT 04/02 A2998 RMK A01 T00410016  RH  084%=      5-min Rain = 0
KWE1 181217Z 17005KT 04/02 A2998 RMK A01 T00410016  RH  084%=      5-min Rain = 0
KWE1 181218Z 17006KT 04/02 A2998 RMK A01 T00410016  RH  084%=      5-min Rain = 0
KWE1 181219Z 18006KT 04/02 A2999 RMK A01 T00410016  RH  084%=      5-min Rain = 0
KWE1 181220Z 18006KT 04/02 A2999 RMK A01 T00400016  RH  084%=      5-min Rain = 0
KWE1 181221Z 18006KT 04/02 A2999 RMK A01 T00410016  RH  084%=      5-min Rain = 0
KWE1 181222Z 18006KT 04/02 A2999 RMK A01 T00400016  RH  084%=      5-min Rain = 0
KWE1 181223Z 18006KT 04/02 A2999 RMK A01 T00410016  RH  084%=      5-min Rain = 0
KWE1 181224Z 17005KT 04/02 A2999 RMK A01 T00410016  RH  084%=      5-min Rain = 0
KWE1 181225Z 17005KT 04/02 A2999 RMK A01 T00410017  RH  084%=      5-min Rain = 0
KWE1 181226Z 17005KT 04/02 A2999 RMK A01 T00410017  RH  084%=      5-min Rain = 0
KWE1 181227Z 17006KT 04/02 A2999 RMK A01 T00410016  RH  084%=      5-min Rain = 0
KWE1 181228Z 17005KT 04/02 A2999 RMK A01 T00410017  RH  084%=      5-min Rain = 0
KWE1 181229Z 18006KT 04/02 A2999 RMK A01 T00410016  RH  084%=      5-min Rain = 0
KWE1 181230Z 18007KT 04/02 A2999 RMK A01 T00420016  RH  084%=      5-min Rain = 0
KWE1 181231Z 18007KT 04/02 A2999 RMK A01 T00420016  RH  084%=      5-min Rain = 0
KWE1 181232Z 19006KT 04/02 A2999 RMK A01 T00410016  RH  084%=      5-min Rain = 0
KWE1 181233Z 19006KT 04/02 A2999 RMK A01 T00400015  RH  084%=      5-min Rain = 0
KWE1 181234Z 19005KT 04/01 A2999 RMK A01 T00390014  RH  084%=      5-min Rain = 0
KWE1 181235Z 19005KT 04/01 A2999 RMK A01 T00380013  RH  084%=      5-min Rain = 0
KWE1 181236Z 19006KT 04/01 A2999 RMK A01 T00370013  RH  084%=      5-min Rain = 0
KWE1 181237Z 18005KT 04/01 A2999 RMK A01 T00370013  RH  085%=      5-min Rain = 0
KWE1 181238Z 18005KT 04/01 A2999 RMK A01 T00370014  RH  085%=      5-min Rain = 0
KWE1 181239Z 17003KT 04/01 A2999 RMK A01 T00370014  RH  085%=      5-min Rain = 0
KWE1 181240Z 18003KT 04/01 A2999 RMK A01 T00370014  RH  085%=      5-min Rain = 0
KWE1 181241Z 18004KT 04/01 A2999 RMK A01 T00360013  RH  085%=      5-min Rain = 0
KWE1 181242Z 18005KT 04/01 A2999 RMK A01 T00350013  RH  085%=      5-min Rain = 0
KWE1 181243Z 18005KT 04/01 A2999 RMK A01 T00350013  RH  085%=      5-min Rain = 0
KWE1 181244Z 18005KT 04/01 A2999 RMK A01 T00350013  RH  085%=      5-min Rain = 0
KWE1 181245Z 18005KT 04/01 A2999 RMK A01 T00350013  RH  086%=      5-min Rain = 0
KWE1 181246Z 18005KT 04/01 A2999 RMK A01 T00350014  RH  086%=      5-min Rain = 0
KWE1 181247Z 19004KT 04/01 A2999 RMK A01 T00350014  RH  086%=      5-min Rain = 0
KWE1 181248Z 18004KT 04/01 A2999 RMK A01 T00350013  RH  086%=      5-min Rain = 0
KWE1 181249Z 19004KT 04/01 A2999 RMK A01 T00350013  RH  086%=      5-min Rain = 0
KWE1 181250Z 19004KT 03/01 A30 RMK A01 T00340012  RH  086%=      5-min Rain = 0
KWE1 181251Z 20004KT 03/01 A30 RMK A01 T00340012  RH  086%=      5-min Rain = 0
KWE1 181252Z 19004KT 03/01 A30 RMK A01 T00330012  RH  086%=      5-min Rain = 0
KWE1 181253Z 19005KT 03/01 A30 RMK A01 T00330012  RH  086%=      5-min Rain = 0
KWE1 181254Z 19004KT 03/01 A30 RMK A01 T00330012  RH  086%=      5-min Rain = 0
KWE1 181255Z 19005KT 03/01 A30 RMK A01 T00330012  RH  087%=      5-min Rain = 0
KWE1 181256Z 19005KT 03/01 A30 RMK A01 T00330013  RH  087%=      5-min Rain = 0
KWE1 181257Z 19005KT 03/01 A2999 RMK A01 T00330013  RH  087%=      5-min Rain = 0
KWE1 181258Z 19005KT 03/01 A30 RMK A01 T00330013  RH  087%=      5-min Rain = 0
KWE1 181259Z 19006KT 03/01 A30 RMK A01 T00330013  RH  087%=      5-min Rain = 0
KWE1 181300Z 19006KT 03/01 A30 RMK A01 T00330013  RH  087%=      5-min Rain = 0
KWE1 181301Z 19007KT 03/01 A30 RMK A01 T00330013  RH  087%=      5-min Rain = 0
KWE1 181302Z 19007KT 03/01 A2999 RMK A01 T00330013  RH  087%=      5-min Rain = 0
KWE1 181303Z 18006KT 03/01 A2999 RMK A01 T00330013  RH  087%=      5-min Rain = 0
KWE1 181304Z 19006KT 03/01 A2999 RMK A01 T00330013  RH  087%=      5-min Rain = 0
KWE1 181305Z 19006KT 03/01 A2999 RMK A01 T00330013  RH  087%=      5-min Rain = 0
KWE1 181306Z 19006KT 03/01 A2999 RMK A01 T00320013  RH  087%=      5-min Rain = 0
KWE1 181307Z 19006KT 03/01 A2999 RMK A01 T00330013  RH  087%=      5-min Rain = 0
KWE1 181308Z 19006KT 03/01 A2999 RMK A01 T00320013  RH  087%=      5-min Rain = 0
KWE1 181309Z 19005KT 03/01 A2999 RMK A01 T00330013  RH  087%=      5-min Rain = 0
KWE1 181310Z 18005KT 03/01 A2999 RMK A01 T00320013  RH  087%=      5-min Rain = 0
KWE1 181311Z 18006KT 03/01 A2999 RMK A01 T00320013  RH  087%=      5-min Rain = 0
KWE1 181312Z 19006KT 03/01 A2999 RMK A01 T00320013  RH  087%=      5-min Rain = 0
KWE1 181313Z 19006KT 03/01 A2999 RMK A01 T00330013  RH  087%=      5-min Rain = 0
KWE1 181314Z 18007KT 03/01 A2999 RMK A01 T00330013  RH  087%=      5-min Rain = 0
KWE1 181315Z 19007KT 03/01 A2999 RMK A01 T00330013  RH  087%=      5-min Rain = 0
KWE1 181316Z 19007KT 03/01 A2999 RMK A01 T00330014  RH  087%=      5-min Rain = 0
KWE1 181317Z 19006KT 03/01 A2999 RMK A01 T00340014  RH  087%=      5-min Rain = 0
KWE1 181318Z 19006KT 03/02 A2999 RMK A01 T00340015  RH  087%=      5-min Rain = 0
KWE1 181319Z 19006KT 04/02 A2999 RMK A01 T00350015  RH  087%=      5-min Rain = 0
KWE1 181320Z 19006KT 04/02 A2999 RMK A01 T00350015  RH  087%=      5-min Rain = 0
KWE1 181321Z 19006KT 04/02 A2999 RMK A01 T00360015  RH  087%=      5-min Rain = 0
KWE1 181322Z 19006KT 04/02 A2999 RMK A01 T00360015  RH  086%=      5-min Rain = 0
KWE1 181323Z 20006KT 04/02 A2999 RMK A01 T00360015  RH  086%=      5-min Rain = 0
KWE1 181324Z 19006KT 04/02 A2999 RMK A01 T00360016  RH  086%=      5-min Rain = 0
KWE1 181325Z 19005KT 04/02 A30 RMK A01 T00370016  RH  086%=      5-min Rain = 0
KWE1 181326Z 19005KT 04/02 A30 RMK A01 T00370016  RH  086%=      5-min Rain = 0
KWE1 181327Z 19005KT 04/02 A30 RMK A01 T00380016  RH  086%=      5-min Rain = 0
KWE1 181328Z 19005KT 04/02 A30 RMK A01 T00380017  RH  086%=      5-min Rain = 0
KWE1 181329Z 19005KT 04/02 A30 RMK A01 T00390017  RH  086%=      5-min Rain = 0
KWE1 181330Z 19005KT 04/02 A30 RMK A01 T00400018  RH  086%=      5-min Rain = 0
KWE1 181331Z 19004KT 04/02 A30 RMK A01 T00400018  RH  085%=      5-min Rain = 0
KWE1 181332Z 19005KT 04/02 A30 RMK A01 T00410018  RH  085%=      5-min Rain = 0
KWE1 181333Z 19004KT 04/02 A30 RMK A01 T00410018  RH  085%=      5-min Rain = 0
KWE1 181334Z 19004KT 04/02 A30 RMK A01 T00420019  RH  085%=      5-min Rain = 0
KWE1 181335Z 19004KT 04/02 A30 RMK A01 T00430019  RH  084%=      5-min Rain = 0
KWE1 181336Z 19004KT 04/02 A30 RMK A01 T00430019  RH  084%=      5-min Rain = 0
KWE1 181337Z 19005KT 04/02 A30 RMK A01 T00440019  RH  084%=      5-min Rain = 0
KWE1 181338Z 19005KT 04/02 A30 RMK A01 T00440019  RH  084%=      5-min Rain = 0
KWE1 181339Z 19005KT 05/02 A3001 RMK A01 T00450020  RH  083%=      5-min Rain = 0
KWE1 181340Z 20005KT 05/02 A3001 RMK A01 T00460020  RH  083%=      5-min Rain = 0
KWE1 181341Z 20005KT 05/02 A3001 RMK A01 T00460020  RH  083%=      5-min Rain = 0
KWE1 181342Z 20004KT 05/02 A3001 RMK A01 T00470020  RH  083%=      5-min Rain = 0
KWE1 181343Z 21005KT 05/02 A3001 RMK A01 T00480021  RH  083%=      5-min Rain = 0
KWE1 181344Z 21005KT 05/02 A30 RMK A01 T00490021  RH  082%=      5-min Rain = 0
KWE1 181345Z 21006KT 05/02 A30 RMK A01 T00500022  RH  082%=      5-min Rain = 0
KWE1 181346Z 21005KT 05/02 A30 RMK A01 T00500022  RH  082%=      5-min Rain = 0
KWE1 181347Z 21006KT 05/02 A30 RMK A01 T00520023  RH  082%=      5-min Rain = 0
KWE1 181348Z 21005KT 05/02 A30 RMK A01 T00530023  RH  081%=      5-min Rain = 0
KWE1 181349Z 21006KT 05/02 A30 RMK A01 T00530023  RH  081%=      5-min Rain = 0
KWE1 181350Z 21005KT 05/02 A30 RMK A01 T00540023  RH  081%=      5-min Rain = 0
KWE1 181351Z 21005KT 05/02 A30 RMK A01 T00540023  RH  081%=      5-min Rain = 0
KWE1 181352Z 22005KT 05/02 A30 RMK A01 T00540023  RH  080%=      5-min Rain = 0
KWE1 181353Z 21006KT 05/02 A30 RMK A01 T00540023  RH  080%=      5-min Rain = 0
KWE1 181354Z 21005KT 05/02 A30 RMK A01 T00540023  RH  080%=      5-min Rain = 0
KWE1 181355Z 21006KT 05/02 A30 RMK A01 T00540023  RH  080%=      5-min Rain = 0
KWE1 181356Z 22006KT 06/02 A30 RMK A01 T00550023  RH  080%=      5-min Rain = 0
KWE1 181357Z 22006KT 05/02 A30 RMK A01 T00540023  RH  080%=      5-min Rain = 0
KWE1 181358Z 22005KT 05/02 A30 RMK A01 T00540023  RH  080%=      5-min Rain = 0
KWE1 181359Z 21005KT 05/02 A30 RMK A01 T00540023  RH  081%=      5-min Rain = 0
KWE1 181400Z 21006KT 05/02 A30 RMK A01 T00540023  RH  081%=      5-min Rain = 0
KWE1 181401Z 21005KT 05/02 A30 RMK A01 T00540023  RH  080%=      5-min Rain = 0
KWE1 181402Z 21005KT 05/02 A30 RMK A01 T00540023  RH  080%=      5-min Rain = 0
KWE1 181403Z 22006KT 05/02 A30 RMK A01 T00540023  RH  080%=      5-min Rain = 0
KWE1 181404Z 22007KT 05/02 A30 RMK A01 T00540023  RH  080%=      5-min Rain = 0
KWE1 181405Z 22006KT 06/02 A30 RMK A01 T00550024  RH  081%=      5-min Rain = 0
KWE1 181406Z 22006KT 06/02 A30 RMK A01 T00550024  RH  081%=      5-min Rain = 0
KWE1 181407Z 21006KT 06/03 A30 RMK A01 T00560025  RH  081%=      5-min Rain = 0
KWE1 181408Z 21007KT 06/03 A30 RMK A01 T00560025  RH  080%=      5-min Rain = 0
KWE1 181409Z 22007KT 06/03 A30 RMK A01 T00560025  RH  080%=      5-min Rain = 0
KWE1 181410Z 22007KT 06/03 A30 RMK A01 T00570026  RH  080%=      5-min Rain = 0
KWE1 181411Z 22006KT 06/03 A30 RMK A01 T00580026  RH  080%=      5-min Rain = 0
KWE1 181412Z 22006KT 06/03 A30 RMK A01 T00590026  RH  080%=      5-min Rain = 0
KWE1 181413Z 22006KT 06/03 A30 RMK A01 T00600027  RH  080%=      5-min Rain = 0
KWE1 181414Z 22006KT 06/03 A30 RMK A01 T00600027  RH  079%=      5-min Rain = 0
KWE1 181415Z 22005KT 06/03 A30 RMK A01 T00620028  RH  079%=      5-min Rain = 0
KWE1 181416Z 22006KT 06/03 A30 RMK A01 T00620029  RH  079%=      5-min Rain = 0
KWE1 181417Z 22006KT 06/03 A30 RMK A01 T00630029  RH  079%=      5-min Rain = 0
KWE1 181418Z 22006KT 06/03 A30 RMK A01 T00640028  RH  078%=      5-min Rain = 0
KWE1 181419Z 22006KT 07/03 A30 RMK A01 T00650029  RH  078%=      5-min Rain = 0
KWE1 181420Z 21006KT 07/03 A30 RMK A01 T00660030  RH  078%=      5-min Rain = 0
KWE1 181421Z 22006KT 07/03 A30 RMK A01 T00670030  RH  078%=      5-min Rain = 0
KWE1 181422Z 22006KT 07/03 A30 RMK A01 T00670030  RH  077%=      5-min Rain = 0
KWE1 181423Z 22006KT 07/03 A30 RMK A01 T00680031  RH  077%=      5-min Rain = 0
KWE1 181424Z 22007KT 07/03 A30 RMK A01 T00690031  RH  077%=      5-min Rain = 0
KWE1 181425Z 21008KT 07/03 A30 RMK A01 T00690031  RH  077%=      5-min Rain = 0
KWE1 181426Z 21007KT 07/03 A30 RMK A01 T00700031  RH  076%=      5-min Rain = 0
KWE1 181427Z 21006KT 07/03 A30 RMK A01 T00710031  RH  076%=      5-min Rain = 0
KWE1 181428Z 21006KT 07/03 A30 RMK A01 T00710032  RH  076%=      5-min Rain = 0
KWE1 181429Z 21007KT 07/03 A30 RMK A01 T00720032  RH  076%=      5-min Rain = 0
KWE1 181430Z 21007KT 07/03 A30 RMK A01 T00730032  RH  075%=      5-min Rain = 0
KWE1 181431Z 21007KT 07/03 A30 RMK A01 T00730032  RH  075%=      5-min Rain = 0
KWE1 181432Z 21006KT 07/03 A30 RMK A01 T00740033  RH  075%=      5-min Rain = 0
KWE1 181433Z 22006KT 08/03 A30 RMK A01 T00750034  RH  075%=      5-min Rain = 0
KWE1 181434Z 22007KT 08/04 A30 RMK A01 T00770035  RH  075%=      5-min Rain = 0
KWE1 181435Z 22007KT 08/03 A30 RMK A01 T00770034  RH  074%=      5-min Rain = 0
KWE1 181436Z 22006KT 08/03 A30 RMK A01 T00780034  RH  074%=      5-min Rain = 0
KWE1 181437Z 22007KT 08/04 A30 RMK A01 T00790035  RH  074%=      5-min Rain = 0
KWE1 181438Z 22007KT 08/04 A30 RMK A01 T00800035  RH  073%=      5-min Rain = 0
KWE1 181439Z 22007KT 08/04 A2999 RMK A01 T00810035  RH  073%=      5-min Rain = 0
KWE1 181440Z 21006KT 08/04 A2999 RMK A01 T00830036  RH  072%=      5-min Rain = 0
KWE1 181441Z 21007KT 08/04 A2999 RMK A01 T00830036  RH  072%=      5-min Rain = 0
KWE1 181442Z 21006KT 08/04 A2999 RMK A01 T00840036  RH  072%=      5-min Rain = 0
KWE1 181443Z 21006KT 09/04 A2999 RMK A01 T00860038  RH  072%=      5-min Rain = 0
KWE1 181444Z 21008KT 09/04 A2999 RMK A01 T00870037  RH  071%=      5-min Rain = 0
KWE1 181445Z 22007KT 09/04 A2999 RMK A01 T00870037  RH  071%=      5-min Rain = 0
KWE1 181446Z 21007KT 09/04 A2999 RMK A01 T00880037  RH  071%=      5-min Rain = 0
KWE1 181447Z 22007KT 09/04 A2999 RMK A01 T00880036  RH  070%=      5-min Rain = 0
KWE1 181448Z 21008KT 09/04 A2999 RMK A01 T00880036  RH  070%=      5-min Rain = 0
KWE1 181449Z 21008KT 09/04 A2999 RMK A01 T00890037  RH  070%=      5-min Rain = 0
KWE1 181450Z 22007KT 09/04 A2999 RMK A01 T00890037  RH  070%=      5-min Rain = 0
KWE1 181451Z 21006KT 09/04 A2999 RMK A01 T00890037  RH  070%=      5-min Rain = 0
KWE1 181452Z 21007KT 09/04 A2999 RMK A01 T00910039  RH  070%=      5-min Rain = 0
KWE1 181453Z 21006KT 09/04 A2999 RMK A01 T00920039  RH  069%=      5-min Rain = 0
KWE1 181454Z 21007KT 09/04 A2999 RMK A01 T00930040  RH  069%=      5-min Rain = 0
KWE1 181455Z 21007KT 09/04 A2999 RMK A01 T00940041  RH  069%=      5-min Rain = 0
KWE1 181456Z 21008KT 10/04 A2999 RMK A01 T00950040  RH  068%=      5-min Rain = 0
KWE1 181457Z 21008KT 10/04 A2999 RMK A01 T00960040  RH  068%=      5-min Rain = 0
KWE1 181458Z 21008KT 10/04 A2999 RMK A01 T00960040  RH  068%=      5-min Rain = 0
KWE1 181459Z 21007KT 10/04 A2999 RMK A01 T00970040  RH  068%=      5-min Rain = 0
KWE1 181500Z 21007KT 10/04 A2999 RMK A01 T00980041  RH  067%=      5-min Rain = 0
KWE1 181501Z 21009KT 10/04 A2999 RMK A01 T00990040  RH  067%=      5-min Rain = 0
KWE1 181502Z 21009KT 10/04 A2999 RMK A01 T00990039  RH  066%=      5-min Rain = 0
KWE1 181503Z 21007KT 10/04 A2999 RMK A01 T01000040  RH  066%=      5-min Rain = 0
KWE1 181504Z 21006KT 10/04 A2999 RMK A01 T01010041  RH  066%=      5-min Rain = 0
KWE1 181505Z 21008KT 10/04 A2999 RMK A01 T01030041  RH  065%=      5-min Rain = 0
KWE1 181506Z 21008KT 10/04 A2999 RMK A01 T01040041  RH  065%=      5-min Rain = 0
KWE1 181507Z 21008KT 11/04 A2999 RMK A01 T01050040  RH  064%=      5-min Rain = 0
KWE1 181508Z 22006KT 11/04 A2999 RMK A01 T01060041  RH  064%=      5-min Rain = 0
KWE1 181509Z 22006KT 11/05 A2999 RMK A01 T01080045  RH  065%=      5-min Rain = 0
KWE1 181510Z 21008KT 11/05 A2999 RMK A01 T01100045  RH  064%=      5-min Rain = 0
KWE1 181511Z 21009KT 11/04 A2999 RMK A01 T01100041  RH  062%=      5-min Rain = 0
KWE1 181512Z 21008KT 11/04 A2999 RMK A01 T01110041  RH  062%=      5-min Rain = 0
KWE1 181513Z 22009KT 11/04 A2999 RMK A01 T01110042  RH  062%=      5-min Rain = 0
KWE1 181514Z 22009KT 11/04 A2999 RMK A01 T01120042  RH  062%=      5-min Rain = 0
KWE1 181515Z 22009KT 11/04 A2999 RMK A01 T01120041  RH  061%=      5-min Rain = 0
KWE1 181516Z 22010KT 11/04 A2999 RMK A01 T01120041  RH  062%=      5-min Rain = 0
KWE1 181517Z 23010KT 11/04 A2999 RMK A01 T01130041  RH  061%=      5-min Rain = 0
KWE1 181518Z 22009KT 11/04 A2999 RMK A01 T01130040  RH  061%=      5-min Rain = 0
KWE1 181519Z 22008KT 11/04 A2999 RMK A01 T01130042  RH  061%=      5-min Rain = 0
KWE1 181520Z 23008KT 11/04 A2999 RMK A01 T01140042  RH  061%=      5-min Rain = 0
KWE1 181521Z 23008KT 12/04 A2999 RMK A01 T01150043  RH  061%=      5-min Rain = 0
KWE1 181522Z 22008KT 12/04 A2999 RMK A01 T01170043  RH  061%=      5-min Rain = 0
KWE1 181523Z 23008KT 12/04 A2999 RMK A01 T01180044  RH  061%=      5-min Rain = 0
KWE1 181524Z 23008KT 12/05 A2999 RMK A01 T01190045  RH  061%=      5-min Rain = 0
KWE1 181525Z 22008KT 12/05 A2999 RMK A01 T01200046  RH  060%=      5-min Rain = 0
KWE1 181526Z 23008KT 12/05 A2999 RMK A01 T01210046  RH  060%=      5-min Rain = 0
KWE1 181527Z 22008KT 12/05 A2999 RMK A01 T01220045  RH  060%=      5-min Rain = 0
KWE1 181528Z 23006KT 12/05 A2999 RMK A01 T01220047  RH  060%=      5-min Rain = 0
KWE1 181529Z 22007KT 12/05 A2999 RMK A01 T01240049  RH  060%=      5-min Rain = 0
KWE1 181530Z 22010KT 13/05 A2999 RMK A01 T01250047  RH  059%=      5-min Rain = 0
KWE1 181531Z 23010KT 13/04 A2999 RMK A01 T01250044  RH  058%=      5-min Rain = 0
KWE1 181532Z 23009KT 12/04 A2999 RMK A01 T01240043  RH  058%=      5-min Rain = 0
KWE1 181533Z 23010KT 12/04 A2999 RMK A01 T01230043  RH  058%=      5-min Rain = 0
KWE1 181534Z 23011KT 12/04 A2999 RMK A01 T01230043  RH  058%=      5-min Rain = 0
KWE1 181535Z 23011KT 12/04 A2999 RMK A01 T01230042  RH  057%=      5-min Rain = 0
KWE1 181536Z 23011KT 12/04 A2999 RMK A01 T01230042  RH  058%=      5-min Rain = 0
KWE1 181537Z 23011KT 12/04 A2999 RMK A01 T01240043  RH  058%=      5-min Rain = 0
KWE1 181538Z 22012KT 13/04 A2999 RMK A01 T01250043  RH  057%=      5-min Rain = 0
KWE1 181539Z 22011KT 12/04 A2999 RMK A01 T01240042  RH  057%=      5-min Rain = 0
KWE1 181540Z 22010KT 13/04 A2999 RMK A01 T01250042  RH  057%=      5-min Rain = 0
KWE1 181541Z 23010KT 13/04 A2999 RMK A01 T01250042  RH  057%=      5-min Rain = 0
KWE1 181542Z 23010KT 13/04 A2999 RMK A01 T01250042  RH  057%=      5-min Rain = 0
KWE1 181543Z 22010KT 13/04 A2999 RMK A01 T01250042  RH  057%=      5-min Rain = 0
KWE1 181544Z 23009KT 13/04 A2999 RMK A01 T01270044  RH  057%=      5-min Rain = 0
KWE1 181545Z 22010KT 13/04 A2999 RMK A01 T01280044  RH  057%=      5-min Rain = 0
KWE1 181546Z 22009KT 13/04 A2999 RMK A01 T01290044  RH  056%=      5-min Rain = 0
KWE1 181547Z 22008KT 13/05 A30 RMK A01 T01300046  RH  056%=      5-min Rain = 0
KWE1 181548Z 23009KT 13/05 A30 RMK A01 T01310046  RH  056%=      5-min Rain = 0
KWE1 181549Z 23011KT 13/04 A30 RMK A01 T01310044  RH  055%=      5-min Rain = 0
KWE1 181550Z 24010KT 13/04 A30 RMK A01 T01310044  RH  056%=      5-min Rain = 0
KWE1 181551Z 23011KT 13/04 A30 RMK A01 T01310043  RH  055%=      5-min Rain = 0
KWE1 181552Z 24010KT 13/04 A30 RMK A01 T01310043  RH  055%=      5-min Rain = 0
KWE1 181553Z 24009KT 13/04 A30 RMK A01 T01310042  RH  055%=      5-min Rain = 0
KWE1 181554Z 23008KT 13/04 A30 RMK A01 T01330044  RH  055%=      5-min Rain = 0
KWE1 181555Z 22011KT 14/05 A2999 RMK A01 T01350046  RH  055%=      5-min Rain = 0
KWE1 181556Z 23010KT 14/05 A2999 RMK A01 T01360045  RH  054%=      5-min Rain = 0
KWE1 181557Z 23009KT 14/05 A2999 RMK A01 T01370045  RH  054%=      5-min Rain = 0
KWE1 181558Z 22009KT 14/05 A2999 RMK A01 T01380045  RH  053%=      5-min Rain = 0
KWE1 181559Z 22008KT 14/05 A30 RMK A01 T01380045  RH  054%=      5-min Rain = 0
KWE1 181600Z 22008KT 14/05 A30 RMK A01 T01380046  RH  054%=      5-min Rain = 0
KWE1 181601Z 22008KT 14/05 A30 RMK A01 T01390048  RH  054%=      5-min Rain = 0
KWE1 181602Z 23009KT 14/05 A30 RMK A01 T01410048  RH  053%=      5-min Rain = 0
KWE1 181603Z 22009KT 14/05 A30 RMK A01 T01420047  RH  053%=      5-min Rain = 0
KWE1 181604Z 23010KT 14/05 A30 RMK A01 T01420045  RH  052%=      5-min Rain = 0
KWE1 181605Z 22010KT 14/05 A30 RMK A01 T01410045  RH  052%=      5-min Rain = 0
KWE1 181606Z 22011KT 14/05 A30 RMK A01 T01400045  RH  052%=      5-min Rain = 0
KWE1 181607Z 22008KT 14/05 A30 RMK A01 T01400045  RH  053%=      5-min Rain = 0
KWE1 181608Z 22010KT 14/05 A30 RMK A01 T01420048  RH  053%=      5-min Rain = 0
KWE1 181609Z 22010KT 14/05 A30 RMK A01 T01440046  RH  052%=      5-min Rain = 0
KWE1 181610Z 21010KT 15/05 A30 RMK A01 T01450047  RH  052%=      5-min Rain = 0
KWE1 181611Z 22010KT 15/05 A2999 RMK A01 T01450046  RH  051%=      5-min Rain = 0
KWE1 181612Z 22009KT 15/05 A2999 RMK A01 T01450046  RH  052%=      5-min Rain = 0
KWE1 181613Z 22009KT 15/05 A2999 RMK A01 T01450046  RH  051%=      5-min Rain = 0
KWE1 181614Z 22011KT 15/05 A2999 RMK A01 T01460046  RH  051%=      5-min Rain = 0
KWE1 181615Z 22009KT 15/05 A30 RMK A01 T01460045  RH  050%=      5-min Rain = 0
KWE1 181616Z 22009KT 15/05 A30 RMK A01 T01450045  RH  051%=      5-min Rain = 0
KWE1 181617Z 22008KT 15/05 A30 RMK A01 T01470047  RH  051%=      5-min Rain = 0
KWE1 181618Z 21009KT 15/05 A30 RMK A01 T01490047  RH  051%=      5-min Rain = 0
KWE1 181619Z 22009KT 15/05 A30 RMK A01 T01510048  RH  050%=      5-min Rain = 0
KWE1 181620Z 22009KT 15/05 A30 RMK A01 T01520046  RH  049%=      5-min Rain = 0
KWE1 181621Z 22011KT 15/05 A2999 RMK A01 T01520046  RH  049%=      5-min Rain = 0
KWE1 181622Z 22010KT 15/05 A2999 RMK A01 T01520046  RH  049%=      5-min Rain = 0
KWE1 181623Z 22013KT 15/04 A2999 RMK A01 T01530044  RH  048%=      5-min Rain = 0
KWE1 181624Z 22012KT 15/04 A2999 RMK A01 T01520042  RH  048%=      5-min Rain = 0
KWE1 181625Z 22012KT 15/04 A2999 RMK A01 T01510043  RH  048%=      5-min Rain = 0
KWE1 181626Z 22014KT 15/04 A2999 RMK A01 T01520042  RH  048%=      5-min Rain = 0
KWE1 181627Z 23013KT 15/04 A2999 RMK A01 T01510040  RH  047%=      5-min Rain = 0
KWE1 181628Z 23014KT 15/04 A2999 RMK A01 T01500041  RH  048%=      5-min Rain = 0
KWE1 181629Z 22013KT 15/04 A2999 RMK A01 T01500040  RH  048%=      5-min Rain = 0
KWE1 181630Z 22012KT 15/04 A2999 RMK A01 T01500041  RH  048%=      5-min Rain = 0
KWE1 181631Z 22011KT 15/04 A2999 RMK A01 T01520042  RH  048%=      5-min Rain = 0
KWE1 181632Z 22012KT 15/04 A2999 RMK A01 T01540043  RH  048%=      5-min Rain = 0
KWE1 181633Z 22011KT 15/04 A2999 RMK A01 T01540042  RH  047%=      5-min Rain = 0
KWE1 181634Z 23013KT 16/04 A2999 RMK A01 T01550042  RH  047%=      5-min Rain = 0
KWE1 181635Z 23010KT 15/04 A2999 RMK A01 T01540042  RH  047%=      5-min Rain = 0
KWE1 181636Z 23012KT 16/04 A2999 RMK A01 T01550043  RH  047%=      5-min Rain = 0
KWE1 181637Z 23014KT 16/04 A2999 RMK A01 T01560042  RH  046%=      5-min Rain = 0
KWE1 181638Z 23012KT 16/04 A2999 RMK A01 T01550042  RH  047%=      5-min Rain = 0
KWE1 181639Z 23013KT 16/04 A2999 RMK A01 T01550043  RH  047%=      5-min Rain = 0
KWE1 181640Z 23010KT 16/04 A2999 RMK A01 T01560042  RH  047%=      5-min Rain = 0
KWE1 181641Z 23010KT 16/04 A2999 RMK A01 T01560044  RH  047%=      5-min Rain = 0
KWE1 181642Z 23009KT 16/05 A2999 RMK A01 T01590047  RH  047%=      5-min Rain = 0
KWE1 181643Z 23011KT 16/05 A2999 RMK A01 T01610046  RH  046%=      5-min Rain = 0
KWE1 181644Z 23014KT 16/04 A2998 RMK A01 T01610043  RH  045%=      5-min Rain = 0
KWE1 181645Z 23015KT 16/04 A2998 RMK A01 T01610042  RH  045%=      5-min Rain = 0
KWE1 181646Z 23013KT 16/04 A2998 RMK A01 T01590041  RH  045%=      5-min Rain = 0
KWE1 181647Z 22013KT 16/04 A2998 RMK A01 T01600043  RH  046%=      5-min Rain = 0
KWE1 181648Z 23014KT 16/04 A2998 RMK A01 T01620044  RH  045%=      5-min Rain = 0
KWE1 181649Z 23014KT 16/04 A2998 RMK A01 T01630042  RH  045%=      5-min Rain = 0
KWE1 181650Z 23014KT 16/04 A2998 RMK A01 T01620042  RH  045%=      5-min Rain = 0
KWE1 181651Z 23012KT 16/04 A2998 RMK A01 T01620042  RH  045%=      5-min Rain = 0
KWE1 181652Z 23012KT 16/05 A2998 RMK A01 T01640045  RH  045%=      5-min Rain = 0
KWE1 181653Z 23013KT 17/04 A2998 RMK A01 T01650044  RH  045%=      5-min Rain = 0
KWE1 181654Z 23013KT 17/04 A2998 RMK A01 T01650044  RH  045%=      5-min Rain = 0
KWE1 181655Z 23013KT 17/04 A2998 RMK A01 T01660044  RH  044%=      5-min Rain = 0
KWE1 181656Z 23013KT 17/04 A2998 RMK A01 T01660043  RH  044%=      5-min Rain = 0
KWE1 181657Z 23012KT 17/04 A2998 RMK A01 T01660044  RH  045%=      5-min Rain = 0
KWE1 181658Z 23014KT 17/05 A2998 RMK A01 T01680046  RH  044%=      5-min Rain = 0
KWE1 181659Z 22010KT 17/04 A2998 RMK A01 T01670044  RH  044%=      5-min Rain = 0
KWE1 181700Z 23013KT 17/04 A2998 RMK A01 T01670044  RH  044%=      5-min Rain = 0
KWE1 181701Z 22011KT 17/04 A2998 RMK A01 T01670044  RH  044%=      5-min Rain = 0
KWE1 181702Z 23011KT 17/04 A2998 RMK A01 T01670044  RH  044%=      5-min Rain = 0
KWE1 181703Z 22011KT 17/05 A2998 RMK A01 T01680046  RH  044%=      5-min Rain = 0
KWE1 181704Z 22012KT 17/05 A2998 RMK A01 T01700046  RH  044%=      5-min Rain = 0
KWE1 181705Z 22013KT 17/05 A2998 RMK A01 T01710046  RH  044%=      5-min Rain = 0
KWE1 181706Z 22013KT 17/05 A2998 RMK A01 T01720045  RH  043%=      5-min Rain = 0
KWE1 181707Z 23013KT 17/05 A2998 RMK A01 T01720045  RH  043%=      5-min Rain = 0
KWE1 181708Z 23010KT 17/05 A2998 RMK A01 T01710046  RH  043%=      5-min Rain = 0
KWE1 181709Z 23011KT 17/05 A2998 RMK A01 T01720045  RH  043%=      5-min Rain = 0
KWE1 181710Z 22012KT 17/05 A2998 RMK A01 T01730045  RH  043%=      5-min Rain = 0
KWE1 181711Z 22011KT 17/05 A2998 RMK A01 T01730045  RH  043%=      5-min Rain = 0
KWE1 181712Z 21011KT 17/05 A2998 RMK A01 T01740047  RH  043%=      5-min Rain = 0
KWE1 181713Z 22013KT 18/05 A2998 RMK A01 T01760048  RH  043%=      5-min Rain = 0
KWE1 181714Z 22012KT 18/05 A2998 RMK A01 T01760047  RH  042%=      5-min Rain = 0
KWE1 181715Z 20010KT 18/05 A2998 RMK A01 T01750045  RH  042%=      5-min Rain = 0
KWE1 181716Z 21013KT 18/05 A2998 RMK A01 T01750045  RH  042%=      5-min Rain = 0
KWE1 181717Z 21009KT 17/05 A2998 RMK A01 T01740045  RH  042%=      5-min Rain = 0
KWE1 181718Z 21009KT 18/05 A2998 RMK A01 T01750047  RH  043%=      5-min Rain = 0
KWE1 181719Z 21009KT 18/05 A2998 RMK A01 T01780048  RH  042%=      5-min Rain = 0
KWE1 181720Z 23011KT 18/05 A2998 RMK A01 T01790047  RH  041%=      5-min Rain = 0
KWE1 181721Z 23012KT 18/05 A2998 RMK A01 T01800045  RH  041%=      5-min Rain = 0
KWE1 181722Z 22012KT 18/04 A2997 RMK A01 T01780044  RH  041%=      5-min Rain = 0
KWE1 181723Z 23010KT 18/04 A2997 RMK A01 T01770044  RH  041%=      5-min Rain = 0
KWE1 181724Z 21010KT 18/05 A2997 RMK A01 T01780045  RH  041%=      5-min Rain = 0
KWE1 181725Z 22008KT 18/05 A2997 RMK A01 T01800048  RH  042%=      5-min Rain = 0
KWE1 181726Z 21011KT 18/05 A2997 RMK A01 T01840050  RH  041%=      5-min Rain = 0
KWE1 181727Z 21011KT 18/05 A2997 RMK A01 T01840047  RH  040%=      5-min Rain = 0
KWE1 181728Z 22012KT 18/05 A2997 RMK A01 T01830046  RH  040%=      5-min Rain = 0
KWE1 181729Z 21012KT 18/05 A2997 RMK A01 T01830045  RH  040%=      5-min Rain = 0
KWE1 181730Z 21011KT 18/04 A2997 RMK A01 T01820043  RH  040%=      5-min Rain = 0
KWE1 181731Z 22012KT 18/04 A2997 RMK A01 T01810044  RH  040%=      5-min Rain = 0
KWE1 181732Z 22011KT 18/04 A2997 RMK A01 T01820044  RH  040%=      5-min Rain = 0
KWE1 181733Z 23012KT 18/04 A2997 RMK A01 T01830042  RH  039%=      5-min Rain = 0
KWE1 181734Z 23010KT 18/04 A2997 RMK A01 T01830043  RH  040%=      5-min Rain = 0
KWE1 181735Z 22011KT 18/05 A2997 RMK A01 T01830045  RH  040%=      5-min Rain = 0
KWE1 181736Z 22012KT 18/05 A2996 RMK A01 T01840045  RH  040%=      5-min Rain = 0
KWE1 181737Z 21012KT 19/04 A2996 RMK A01 T01850044  RH  039%=      5-min Rain = 0
KWE1 181738Z 23012KT 19/04 A2996 RMK A01 T01860044  RH  039%=      5-min Rain = 0
KWE1 181739Z 22011KT 19/05 A2996 RMK A01 T01860045  RH  039%=      5-min Rain = 0
KWE1 181740Z 22014KT 19/04 A2996 RMK A01 T01870044  RH  039%=      5-min Rain = 0
KWE1 181741Z 21013KT 19/04 A2996 RMK A01 T01870043  RH  039%=      5-min Rain = 0
KWE1 181742Z 22012KT 19/04 A2996 RMK A01 T01860044  RH  039%=      5-min Rain = 0
KWE1 181743Z 22013KT 19/04 A2996 RMK A01 T01870044  RH  039%=      5-min Rain = 0
KWE1 181744Z 22013KT 19/04 A2996 RMK A01 T01870043  RH  039%=      5-min Rain = 0
KWE1 181745Z 22012KT 19/05 A2995 RMK A01 T01880045  RH  039%=      5-min Rain = 0
KWE1 181746Z 22011KT 19/05 A2995 RMK A01 T01900046  RH  039%=      5-min Rain = 0
KWE1 181747Z 22013KT 19/05 A2995 RMK A01 T01910045  RH  038%=      5-min Rain = 0
KWE1 181748Z 22012KT 19/05 A2995 RMK A01 T01910046  RH  038%=      5-min Rain = 0
KWE1 181749Z 21013KT 19/05 A2995 RMK A01 T01930046  RH  038%=      5-min Rain = 0
KWE1 181750Z 21015KT 19/05 A2995 RMK A01 T01930045  RH  038%=      5-min Rain = 0
KWE1 181751Z 23013KT 19/04 A2995 RMK A01 T01920043  RH  037%=      5-min Rain = 0
KWE1 181752Z 23013KT 19/04 A2995 RMK A01 T01920043  RH  037%=      5-min Rain = 0
KWE1 181753Z 23013KT 19/04 A2995 RMK A01 T01910043  RH  038%=      5-min Rain = 0
KWE1 181754Z 22011KT 19/05 A2995 RMK A01 T01910046  RH  038%=      5-min Rain = 0
KWE1 181755Z 22010KT 19/05 A2995 RMK A01 T01930047  RH  038%=      5-min Rain = 0
KWE1 181756Z 22011KT 19/05 A2995 RMK A01 T01940046  RH  038%=      5-min Rain = 0
KWE1 181757Z 22011KT 19/05 A2995 RMK A01 T01940045  RH  037%=      5-min Rain = 0
KWE1 181758Z 23010KT 20/05 A2995 RMK A01 T01950046  RH  038%=      5-min Rain = 0
KWE1 181759Z 21011KT 20/05 A2995 RMK A01 T01970047  RH  037%=      5-min Rain = 0
KWE1 181800Z 22011KT 20/05 A2995 RMK A01 T01970047  RH  037%=      5-min Rain = 0
KWE1 181801Z 22010KT 20/05 A2995 RMK A01 T01970046  RH  037%=      5-min Rain = 0
KWE1 181802Z 22012KT 20/05 A2995 RMK A01 T01970047  RH  037%=      5-min Rain = 0
KWE1 181803Z 22012KT 20/05 A2995 RMK A01 T01980046  RH  037%=      5-min Rain = 0
KWE1 181804Z 22012KT 20/05 A2995 RMK A01 T01980046  RH  037%=      5-min Rain = 0
KWE1 181805Z 22011KT 20/05 A2994 RMK A01 T01980046  RH  037%=      5-min Rain = 0
KWE1 181806Z 22012KT 20/05 A2994 RMK A01 T01980047  RH  037%=      5-min Rain = 0
KWE1 181807Z 23010KT 20/05 A2994 RMK A01 T01970046  RH  037%=      5-min Rain = 0
KWE1 181808Z 24010KT 20/04 A2994 RMK A01 T01960044  RH  037%=      5-min Rain = 0
KWE1 181809Z 23011KT 20/05 A2994 RMK A01 T01960045  RH  037%=      5-min Rain = 0
KWE1 181810Z 22011KT 20/05 A2994 RMK A01 T01970046  RH  037%=      5-min Rain = 0
KWE1 181811Z 23011KT 20/05 A2994 RMK A01 T01980046  RH  037%=      5-min Rain = 0
KWE1 181812Z 21011KT 20/05 A2994 RMK A01 T01980046  RH  037%=      5-min Rain = 0
KWE1 181813Z 21010KT 20/05 A2994 RMK A01 T01980046  RH  037%=      5-min Rain = 0
KWE1 181814Z 21009KT 20/05 A2994 RMK A01 T01980047  RH  037%=      5-min Rain = 0
KWE1 181815Z 22010KT 20/05 A2994 RMK A01 T02000048  RH  037%=      5-min Rain = 0
KWE1 181816Z 21008KT 20/05 A2994 RMK A01 T02000047  RH  036%=      5-min Rain = 0
KWE1 181817Z 22012KT 20/05 A2994 RMK A01 T02000048  RH  037%=      5-min Rain = 0
KWE1 181818Z 22010G15KT 20/05 A2994 RMK A01 T02000045  RH  036%=      5-min Rain = 0
KWE1 181819Z 21011KT 20/05 A2994 RMK A01 T01980045  RH  036%=      5-min Rain = 0
KWE1 181820Z 20012KT 20/05 A2994 RMK A01 T01980047  RH  037%=      5-min Rain = 0
KWE1 181821Z 21011KT 20/05 A2994 RMK A01 T01980045  RH  037%=      5-min Rain = 0
KWE1 181822Z 22011KT 20/05 A2994 RMK A01 T01980045  RH  036%=      5-min Rain = 0
KWE1 181823Z 23011KT 20/05 A2994 RMK A01 T01980045  RH  036%=      5-min Rain = 0
KWE1 181824Z 23011KT 20/05 A2994 RMK A01 T01980045  RH  037%=      5-min Rain = 0
KWE1 181825Z 21009KT 20/05 A2993 RMK A01 T01990048  RH  037%=      5-min Rain = 0
KWE1 181826Z 21013KT 20/05 A2993 RMK A01 T02010048  RH  036%=      5-min Rain = 0
KWE1 181827Z 22012KT 20/05 A2993 RMK A01 T02020047  RH  036%=      5-min Rain = 0
KWE1 181828Z 24009KT 20/05 A2993 RMK A01 T02010045  RH  036%=      5-min Rain = 0
KWE1 181829Z 23010KT 20/05 A2993 RMK A01 T02010046  RH  036%=      5-min Rain = 0
KWE1 181830Z 21009KT 20/05 A2993 RMK A01 T02020046  RH  036%=      5-min Rain = 0
KWE1 181831Z 22009KT 20/05 A2993 RMK A01 T02010046  RH  036%=      5-min Rain = 0
KWE1 181832Z 21013KT 20/05 A2992 RMK A01 T02020047  RH  036%=      5-min Rain = 0
KWE1 181833Z 22011KT 20/05 A2992 RMK A01 T02020047  RH  036%=      5-min Rain = 0
KWE1 181834Z 22012KT 20/05 A2992 RMK A01 T02030047  RH  036%=      5-min Rain = 0
KWE1 181835Z 22011G16KT 20/05 A2992 RMK A01 T02030047  RH  036%=      5-min Rain = 0
KWE1 181836Z 22013KT 20/05 A2992 RMK A01 T02040049  RH  036%=      5-min Rain = 0
KWE1 181837Z 22011KT 21/05 A2992 RMK A01 T02050048  RH  036%=      5-min Rain = 0
KWE1 181838Z 23009KT 21/05 A2992 RMK A01 T02050047  RH  035%=      5-min Rain = 0
KWE1 181839Z 22011KT 21/05 A2992 RMK A01 T02050048  RH  036%=      5-min Rain = 0
KWE1 181840Z 19010KT 21/05 A2992 RMK A01 T02060047  RH  035%=      5-min Rain = 0
KWE1 181841Z 21011KT 21/05 A2992 RMK A01 T02050046  RH  035%=      5-min Rain = 0
KWE1 181842Z 23011KT 21/05 A2992 RMK A01 T02050048  RH  036%=      5-min Rain = 0
KWE1 181843Z 22010KT 21/05 A2992 RMK A01 T02060046  RH  035%=      5-min Rain = 0
KWE1 181844Z 21011KT 21/05 A2992 RMK A01 T02060047  RH  035%=      5-min Rain = 0
KWE1 181845Z 22009KT 21/05 A2992 RMK A01 T02060047  RH  035%=      5-min Rain = 0
KWE1 181846Z 22010KT 21/05 A2991 RMK A01 T02050048  RH  036%=      5-min Rain = 0
KWE1 181847Z 21009KT 21/05 A2991 RMK A01 T02060047  RH  035%=      5-min Rain = 0
KWE1 181848Z 22011KT 21/05 A2991 RMK A01 T02060047  RH  035%=      5-min Rain = 0
KWE1 181849Z 22009KT 21/05 A2991 RMK A01 T02070047  RH  035%=      5-min Rain = 0
KWE1 181850Z 21012KT 21/05 A2991 RMK A01 T02090048  RH  035%=      5-min Rain = 0
KWE1 181851Z 21011KT 21/05 A2991 RMK A01 T02090045  RH  034%=      5-min Rain = 0
KWE1 181852Z 22009KT 21/05 A2991 RMK A01 T02090045  RH  034%=      5-min Rain = 0
KWE1 181853Z 22010KT 21/05 A2991 RMK A01 T02080045  RH  034%=      5-min Rain = 0
KWE1 181854Z 23010KT 21/04 A2991 RMK A01 T02090044  RH  034%=      5-min Rain = 0
KWE1 181855Z 23010KT 21/04 A2991 RMK A01 T02100041  RH  033%=      5-min Rain = 0
KWE1 181856Z 22008KT 21/04 A2991 RMK A01 T02090042  RH  033%=      5-min Rain = 0
KWE1 181857Z 23009KT 21/04 A2991 RMK A01 T02110043  RH  033%=      5-min Rain = 0
KWE1 181858Z 24009KT 21/04 A2991 RMK A01 T02110043  RH  033%=      5-min Rain = 0
KWE1 181859Z 24012KT 21/04 A299 RMK A01 T02120043  RH  033%=      5-min Rain = 0
KWE1 181900Z 23011KT 21/04 A299 RMK A01 T02110042  RH  033%=      5-min Rain = 0
KWE1 181901Z 24009KT 21/04 A299 RMK A01 T02100041  RH  033%=      5-min Rain = 0
KWE1 181902Z 21008KT 21/04 A299 RMK A01 T02090043  RH  034%=      5-min Rain = 0
KWE1 181903Z 21007KT 21/05 A299 RMK A01 T02110045  RH  034%=      5-min Rain = 0
KWE1 181904Z 23009KT 21/04 A299 RMK A01 T02130044  RH  033%=      5-min Rain = 0
KWE1 181905Z 24009KT 21/04 A299 RMK A01 T02140043  RH  032%=      5-min Rain = 0
KWE1 181906Z 22007KT 21/04 A299 RMK A01 T02140043  RH  033%=      5-min Rain = 0
KWE1 181907Z 22011KT 22/04 A299 RMK A01 T02150042  RH  032%=      5-min Rain = 0
KWE1 181908Z 22010KT 22/04 A299 RMK A01 T02150041  RH  032%=      5-min Rain = 0
KWE1 181909Z 22010KT 21/04 A299 RMK A01 T02130041  RH  032%=      5-min Rain = 0
KWE1 181910Z 22010KT 21/04 A299 RMK A01 T02130041  RH  032%=      5-min Rain = 0
KWE1 181911Z 21009KT 21/04 A299 RMK A01 T02130042  RH  032%=      5-min Rain = 0
KWE1 181912Z 21010KT 21/04 A299 RMK A01 T02140042  RH  032%=      5-min Rain = 0
KWE1 181913Z 22011KT 21/04 A299 RMK A01 T02140042  RH  032%=      5-min Rain = 0
KWE1 181914Z 22012KT 22/04 A299 RMK A01 T02150044  RH  032%=      5-min Rain = 0
KWE1 181915Z 21010KT 22/04 A299 RMK A01 T02160042  RH  032%=      5-min Rain = 0
KWE1 181916Z 22012KT 22/04 A2989 RMK A01 T02150042  RH  032%=      5-min Rain = 0
KWE1 181917Z 23012KT 22/04 A2989 RMK A01 T02150041  RH  032%=      5-min Rain = 0
KWE1 181918Z 24008KT 21/04 A2989 RMK A01 T02140040  RH  032%=      5-min Rain = 0
KWE1 181919Z 23010KT 22/04 A2989 RMK A01 T02150041  RH  032%=      5-min Rain = 0
KWE1 181920Z 23007KT 22/04 A299 RMK A01 T02150042  RH  032%=      5-min Rain = 0
KWE1 181921Z 22010KT 22/04 A2989 RMK A01 T02150041  RH  032%=      5-min Rain = 0
KWE1 181922Z 24009KT 21/04 A2989 RMK A01 T02140041  RH  032%=      5-min Rain = 0
KWE1 181923Z 22010KT 21/04 A2989 RMK A01 T02140040  RH  032%=      5-min Rain = 0
KWE1 181924Z 21010KT 21/04 A2989 RMK A01 T02140040  RH  032%=      5-min Rain = 0
KWE1 181925Z 23011KT 22/04 A2989 RMK A01 T02170041  RH  032%=      5-min Rain = 0
KWE1 181926Z 23009KT 22/04 A2989 RMK A01 T02180040  RH  031%=      5-min Rain = 0
KWE1 181927Z 22010KT 22/04 A2989 RMK A01 T02170039  RH  031%=      5-min Rain = 0
KWE1 181928Z 22007KT 22/04 A2989 RMK A01 T02160038  RH  031%=      5-min Rain = 0
KWE1 181929Z 22007KT 22/04 A2989 RMK A01 T02160039  RH  031%=      5-min Rain = 0
KWE1 181930Z 23007KT 22/04 A2989 RMK A01 T02180039  RH  031%=      5-min Rain = 0
KWE1 181931Z 23008KT 22/04 A2989 RMK A01 T02180039  RH  031%=      5-min Rain = 0
KWE1 181932Z 22008KT 22/04 A2989 RMK A01 T02180037  RH  031%=      5-min Rain = 0
KWE1 181933Z 23011KT 22/04 A2989 RMK A01 T02170038  RH  031%=      5-min Rain = 0
KWE1 181934Z 22009KT 22/04 A2989 RMK A01 T02170038  RH  031%=      5-min Rain = 0
KWE1 181935Z 23010KT 22/04 A2989 RMK A01 T02180039  RH  031%=      5-min Rain = 0
KWE1 181936Z 23010KT 22/04 A2988 RMK A01 T02190039  RH  031%=      5-min Rain = 0
KWE1 181937Z 24009KT 22/04 A2988 RMK A01 T02180038  RH  031%=      5-min Rain = 0
KWE1 181938Z 24010KT 22/04 A2988 RMK A01 T02180038  RH  031%=      5-min Rain = 0
KWE1 181939Z 23009KT 22/04 A2988 RMK A01 T02180039  RH  031%=      5-min Rain = 0
KWE1 181940Z 23007KT 22/04 A2988 RMK A01 T02180039  RH  031%=      5-min Rain = 0
KWE1 181941Z 24008KT 22/04 A2988 RMK A01 T02190039  RH  031%=      5-min Rain = 0
KWE1 181942Z 23008KT 22/04 A2988 RMK A01 T02190040  RH  031%=      5-min Rain = 0
KWE1 181943Z 22008KT 22/04 A2988 RMK A01 T02210042  RH  031%=      5-min Rain = 0
KWE1 181944Z 23012KT 22/04 A2988 RMK A01 T02240043  RH  031%=      5-min Rain = 0
KWE1 181945Z 23012KT 22/04 A2988 RMK A01 T02240040  RH  030%=      5-min Rain = 0
KWE1 181946Z 23010KT 22/04 A2988 RMK A01 T02220038  RH  030%=      5-min Rain = 0
KWE1 181947Z 23010KT 22/04 A2988 RMK A01 T02200038  RH  030%=      5-min Rain = 0
KWE1 181948Z 24008KT 22/04 A2988 RMK A01 T02200039  RH  030%=      5-min Rain = 0
KWE1 181949Z 24006KT 22/04 A2988 RMK A01 T02210039  RH  031%=      5-min Rain = 0
KWE1 181950Z 24008KT 22/04 A2988 RMK A01 T02230042  RH  031%=      5-min Rain = 0
KWE1 181951Z 25008KT 22/04 A2988 RMK A01 T02240040  RH  030%=      5-min Rain = 0
KWE1 181952Z 24009KT 22/04 A2988 RMK A01 T02230039  RH  030%=      5-min Rain = 0
KWE1 181953Z 22009KT 22/04 A2988 RMK A01 T02220039  RH  030%=      5-min Rain = 0
KWE1 181954Z 23007KT 22/04 A2988 RMK A01 T02210037  RH  030%=      5-min Rain = 0
KWE1 181955Z 23008KT 22/04 A2988 RMK A01 T02210038  RH  030%=      5-min Rain = 0
KWE1 181956Z 24009KT 22/04 A2988 RMK A01 T02220040  RH  030%=      5-min Rain = 0
KWE1 181957Z 23009KT 22/04 A2988 RMK A01 T02220038  RH  030%=      5-min Rain = 0
KWE1 181958Z 23008KT 22/04 A2987 RMK A01 T02200038  RH  030%=      5-min Rain = 0
KWE1 181959Z 23009KT 22/04 A2987 RMK A01 T02200039  RH  031%=      5-min Rain = 0
KWE1 182000Z 22009KT 22/04 A2987 RMK A01 T02210039  RH  030%=      5-min Rain = 0
KWE1 182001Z 21009KT 22/04 A2987 RMK A01 T02210039  RH  030%=      5-min Rain = 0
KWE1 182002Z 21007KT 22/04 A2987 RMK A01 T02220040  RH  030%=      5-min Rain = 0
KWE1 182003Z 22006KT 23/04 A2987 RMK A01 T02250042  RH  030%=      5-min Rain = 0
KWE1 182004Z 25010KT 23/04 A2987 RMK A01 T02260040  RH  030%=      5-min Rain = 0
KWE1 182005Z 22009KT 23/04 A2987 RMK A01 T02260041  RH  030%=      5-min Rain = 0
KWE1 182006Z 22009KT 23/04 A2987 RMK A01 T02260041  RH  030%=      5-min Rain = 0
KWE1 182007Z 23006KT 23/04 A2987 RMK A01 T02260039  RH  030%=      5-min Rain = 0
KWE1 182008Z 21008KT 23/04 A2987 RMK A01 T02250041  RH  030%=      5-min Rain = 0
KWE1 182009Z 21009KT 23/04 A2987 RMK A01 T02270041  RH  030%=      5-min Rain = 0
KWE1 182010Z 22010KT 23/04 A2986 RMK A01 T02260041  RH  030%=      5-min Rain = 0
KWE1 182011Z 22009KT 23/04 A2986 RMK A01 T02260041  RH  030%=      5-min Rain = 0
KWE1 182012Z 21011KT 23/04 A2986 RMK A01 T02270041  RH  030%=      5-min Rain = 0
KWE1 182013Z 21012KT 23/04 A2986 RMK A01 T02260040  RH  030%=      5-min Rain = 0
KWE1 182014Z 21011KT 23/04 A2986 RMK A01 T02250040  RH  030%=      5-min Rain = 0
KWE1 182015Z 23008KT 22/04 A2986 RMK A01 T02240039  RH  030%=      5-min Rain = 0
KWE1 182016Z 25009KT 23/04 A2986 RMK A01 T02250041  RH  030%=      5-min Rain = 0
KWE1 182017Z 25007KT 23/04 A2986 RMK A01 T02260040  RH  030%=      5-min Rain = 0
KWE1 182018Z 24007KT 23/04 A2986 RMK A01 T02260040  RH  030%=      5-min Rain = 0
KWE1 182019Z 23012KT 23/04 A2986 RMK A01 T02270042  RH  030%=      5-min Rain = 0
KWE1 182020Z 24009KT 23/04 A2986 RMK A01 T02270038  RH  029%=      5-min Rain = 0
KWE1 182021Z 24008KT 23/04 A2986 RMK A01 T02260038  RH  029%=      5-min Rain = 0
KWE1 182022Z 23009KT 23/04 A2986 RMK A01 T02250039  RH  030%=      5-min Rain = 0
KWE1 182023Z 22009KT 23/04 A2986 RMK A01 T02250037  RH  029%=      5-min Rain = 0
KWE1 182024Z 22007KT 22/04 A2986 RMK A01 T02240038  RH  030%=      5-min Rain = 0
KWE1 182025Z 23009KT 23/04 A2986 RMK A01 T02250039  RH  030%=      5-min Rain = 0
KWE1 182026Z 23010KT 23/04 A2986 RMK A01 T02260039  RH  029%=      5-min Rain = 0
KWE1 182027Z 23009KT 23/04 A2986 RMK A01 T02260037  RH  029%=      5-min Rain = 0
KWE1 182028Z 24007KT 23/04 A2986 RMK A01 T02260039  RH  029%=      5-min Rain = 0
KWE1 182029Z 23008KT 23/04 A2986 RMK A01 T02280037  RH  029%=      5-min Rain = 0
KWE1 182030Z 23007KT 23/04 A2986 RMK A01 T02270037  RH  029%=      5-min Rain = 0
KWE1 182031Z 23008KT 23/04 A2985 RMK A01 T02270036  RH  029%=      5-min Rain = 0
KWE1 182032Z 24008KT 23/04 A2986 RMK A01 T02290039  RH  029%=      5-min Rain = 0
KWE1 182033Z 24008KT 23/04 A2985 RMK A01 T02300037  RH  028%=      5-min Rain = 0
KWE1 182034Z 23010KT 23/04 A2985 RMK A01 T02290036  RH  028%=      5-min Rain = 0
KWE1 182035Z 23009KT 23/04 A2985 RMK A01 T02280035  RH  028%=      5-min Rain = 0
KWE1 182036Z 22010KT 23/04 A2985 RMK A01 T02280035  RH  028%=      5-min Rain = 0
KWE1 182037Z 21008KT 23/03 A2985 RMK A01 T02280034  RH  028%=      5-min Rain = 0
KWE1 182038Z 21009KT 23/04 A2985 RMK A01 T02280036  RH  028%=      5-min Rain = 0
KWE1 182039Z 21007KT 23/04 A2985 RMK A01 T02280035  RH  028%=      5-min Rain = 0
KWE1 182040Z 21009KT 23/04 A2985 RMK A01 T02280038  RH  029%=      5-min Rain = 0
KWE1 182041Z 23008KT 23/04 A2985 RMK A01 T02290038  RH  029%=      5-min Rain = 0
KWE1 182042Z 24009KT 23/04 A2985 RMK A01 T02300036  RH  028%=      5-min Rain = 0
KWE1 182043Z 24010KT 23/03 A2985 RMK A01 T02290034  RH  028%=      5-min Rain = 0
KWE1 182044Z 23010KT 23/03 A2985 RMK A01 T02270033  RH  028%=      5-min Rain = 0
KWE1 182045Z 24007KT 23/03 A2985 RMK A01 T02260033  RH  028%=      5-min Rain = 0
KWE1 182046Z 25008KT 23/03 A2985 RMK A01 T02260034  RH  028%=      5-min Rain = 0
KWE1 182047Z 25008KT 23/03 A2985 RMK A01 T02260033  RH  028%=      5-min Rain = 0
KWE1 182048Z 22009KT 23/03 A2985 RMK A01 T02260034  RH  028%=      5-min Rain = 0
KWE1 182049Z 21006KT 23/04 A2985 RMK A01 T02280035  RH  028%=      5-min Rain = 0
KWE1 182050Z 21006KT 23/03 A2985 RMK A01 T02290034  RH  028%=      5-min Rain = 0
KWE1 182051Z 21008KT 23/04 A2985 RMK A01 T02290036  RH  028%=      5-min Rain = 0
KWE1 182052Z 21008KT 23/04 A2985 RMK A01 T02300036  RH  028%=      5-min Rain = 0
KWE1 182053Z 22007KT 23/04 A2985 RMK A01 T02300036  RH  028%=      5-min Rain = 0
KWE1 182054Z 22006KT 23/04 A2985 RMK A01 T02300037  RH  028%=      5-min Rain = 0
KWE1 182055Z 21007KT 23/04 A2985 RMK A01 T02310038  RH  028%=      5-min Rain = 0
KWE1 182056Z 21006KT 23/04 A2985 RMK A01 T02320039  RH  028%=      5-min Rain = 0
KWE1 182057Z 24006KT 23/04 A2985 RMK A01 T02330040  RH  028%=      5-min Rain = 0
KWE1 182058Z 24007KT 23/04 A2985 RMK A01 T02330036  RH  028%=      5-min Rain = 0
KWE1 182059Z 23008KT 23/04 A2985 RMK A01 T02310037  RH  028%=      5-min Rain = 0
KWE1 182100Z 23009KT 23/04 A2985 RMK A01 T02310038  RH  028%=      5-min Rain = 0
KWE1 182101Z 21007KT 23/04 A2985 RMK A01 T02320039  RH  028%=      5-min Rain = 0
KWE1 182102Z 22006KT 23/04 A2985 RMK A01 T02320039  RH  028%=      5-min Rain = 0
KWE1 182103Z 23006KT 23/04 A2985 RMK A01 T02320040  RH  029%=      5-min Rain = 0
KWE1 182104Z 21005KT 23/04 A2985 RMK A01 T02310038  RH  028%=      5-min Rain = 0
KWE1 182105Z 22005KT 23/04 A2985 RMK A01 T02310039  RH  029%=      5-min Rain = 0
KWE1 182106Z 22008KT 23/04 A2985 RMK A01 T02310039  RH  029%=      5-min Rain = 0
KWE1 182107Z 21010KT 23/04 A2985 RMK A01 T02330041  RH  029%=      5-min Rain = 0
KWE1 182108Z 22008KT 23/04 A2985 RMK A01 T02330037  RH  028%=      5-min Rain = 0
KWE1 182109Z 24006KT 23/04 A2985 RMK A01 T02310036  RH  028%=      5-min Rain = 0
KWE1 182110Z 23005KT 23/04 A2985 RMK A01 T02300037  RH  028%=      5-min Rain = 0
KWE1 182111Z 22006KT 23/04 A2985 RMK A01 T02310038  RH  029%=      5-min Rain = 0
KWE1 182112Z 23007KT 23/04 A2985 RMK A01 T02330040  RH  028%=      5-min Rain = 0
KWE1 182113Z 22007KT 23/04 A2985 RMK A01 T02340039  RH  028%=      5-min Rain = 0
KWE1 182114Z 23007KT 23/04 A2985 RMK A01 T02340039  RH  028%=      5-min Rain = 0
KWE1 182115Z 24007KT 23/04 A2985 RMK A01 T02330037  RH  028%=      5-min Rain = 0
KWE1 182116Z 24005KT 23/04 A2985 RMK A01 T02310037  RH  028%=      5-min Rain = 0
KWE1 182117Z 23006KT 23/04 A2985 RMK A01 T02310039  RH  029%=      5-min Rain = 0
KWE1 182118Z 22007KT 23/04 A2985 RMK A01 T02330039  RH  028%=      5-min Rain = 0
KWE1 182119Z 21007KT 23/04 A2985 RMK A01 T02340038  RH  028%=      5-min Rain = 0
KWE1 182120Z 21006KT 23/04 A2985 RMK A01 T02330036  RH  028%=      5-min Rain = 0
KWE1 182121Z 21008KT 23/04 A2985 RMK A01 T02320036  RH  028%=      5-min Rain = 0
KWE1 182122Z 23008KT 23/04 A2985 RMK A01 T02330035  RH  028%=      5-min Rain = 0
KWE1 182123Z 22008KT 23/03 A2985 RMK A01 T02330034  RH  027%=      5-min Rain = 0
KWE1 182124Z 22008KT 23/04 A2986 RMK A01 T02320035  RH  028%=      5-min Rain = 0
KWE1 182125Z 22007KT 23/04 A2986 RMK A01 T02320035  RH  028%=      5-min Rain = 0
KWE1 182126Z 22006KT 23/04 A2986 RMK A01 T02320036  RH  028%=      5-min Rain = 0
KWE1 182127Z 22006KT 23/04 A2986 RMK A01 T02320036  RH  028%=      5-min Rain = 0
KWE1 182128Z 23005KT 23/04 A2986 RMK A01 T02320038  RH  028%=      5-min Rain = 0
KWE1 182129Z 23007KT 23/04 A2986 RMK A01 T02330037  RH  028%=      5-min Rain = 0
KWE1 182130Z 22007KT 23/04 A2986 RMK A01 T02320037  RH  028%=      5-min Rain = 0
KWE1 182131Z 20004KT 23/04 A2986 RMK A01 T02310038  RH  028%=      5-min Rain = 0
KWE1 182132Z 23005KT 23/04 A2986 RMK A01 T02320039  RH  028%=      5-min Rain = 0
KWE1 182133Z 22006KT 23/04 A2986 RMK A01 T02330039  RH  028%=      5-min Rain = 0
KWE1 182134Z 21008KT 23/04 A2986 RMK A01 T02330039  RH  028%=      5-min Rain = 0
KWE1 182135Z 21007KT 23/04 A2986 RMK A01 T02340039  RH  028%=      5-min Rain = 0
KWE1 182136Z 21005KT 23/04 A2986 RMK A01 T02330038  RH  028%=      5-min Rain = 0
KWE1 182137Z 21005KT 23/04 A2986 RMK A01 T02330037  RH  028%=      5-min Rain = 0
KWE1 182138Z 22005KT 23/04 A2986 RMK A01 T02330036  RH  028%=      5-min Rain = 0
KWE1 182139Z 20003KT 23/04 A2986 RMK A01 T02330037  RH  028%=      5-min Rain = 0
KWE1 182140Z 21006KT 23/04 A2986 RMK A01 T02340037  RH  028%=      5-min Rain = 0
KWE1 182141Z 20005KT 23/04 A2986 RMK A01 T02340036  RH  027%=      5-min Rain = 0
KWE1 182142Z 22005KT 23/04 A2986 RMK A01 T02330036  RH  028%=      5-min Rain = 0
KWE1 182143Z 27006KT 23/04 A2986 RMK A01 T02330037  RH  028%=      5-min Rain = 0
KWE1 182144Z 25006KT 23/04 A2986 RMK A01 T02330037  RH  028%=      5-min Rain = 0
KWE1 182145Z 25006KT 23/04 A2986 RMK A01 T02330036  RH  028%=      5-min Rain = 0
KWE1 182146Z 24005KT 23/04 A2986 RMK A01 T02320036  RH  028%=      5-min Rain = 0
KWE1 182147Z 21005KT 23/04 A2986 RMK A01 T02320037  RH  028%=      5-min Rain = 0
KWE1 182148Z 22005KT 23/04 A2986 RMK A01 T02340038  RH  028%=      5-min Rain = 0
KWE1 182149Z 21007KT 23/04 A2986 RMK A01 T02340039  RH  028%=      5-min Rain = 0
KWE1 182150Z 23006KT 24/04 A2986 RMK A01 T02350038  RH  028%=      5-min Rain = 0
KWE1 182151Z 21005KT 23/04 A2986 RMK A01 T02340037  RH  028%=      5-min Rain = 0
KWE1 182152Z 21007KT 23/04 A2986 RMK A01 T02330037  RH  028%=      5-min Rain = 0
KWE1 182153Z 22006KT 23/04 A2986 RMK A01 T02320036  RH  028%=      5-min Rain = 0
KWE1 182154Z 21006KT 23/04 A2986 RMK A01 T02330037  RH  028%=      5-min Rain = 0
KWE1 182155Z 21006KT 23/04 A2986 RMK A01 T02330036  RH  028%=      5-min Rain = 0
KWE1 182156Z 21007KT 23/04 A2986 RMK A01 T02340036  RH  027%=      5-min Rain = 0
KWE1 182157Z 22008KT 23/04 A2986 RMK A01 T02340036  RH  027%=      5-min Rain = 0
KWE1 182158Z 22008KT 23/04 A2986 RMK A01 T02330035  RH  027%=      5-min Rain = 0
KWE1 182159Z 23007KT 23/03 A2986 RMK A01 T02320034  RH  027%=      5-min Rain = 0
KWE1 182200Z 22006KT 23/04 A2986 RMK A01 T02320035  RH  028%=      5-min Rain = 0
KWE1 182201Z 22006KT 23/04 A2986 RMK A01 T02320035  RH  028%=      5-min Rain = 0
KWE1 182202Z 21007KT 23/04 A2986 RMK A01 T02310035  RH  028%=      5-min Rain = 0
KWE1 182203Z 23007KT 23/04 A2985 RMK A01 T02320036  RH  028%=      5-min Rain = 0
KWE1 182204Z 22005KT 23/04 A2985 RMK A01 T02320035  RH  028%=      5-min Rain = 0
KWE1 182205Z 22007KT 23/04 A2985 RMK A01 T02320036  RH  028%=      5-min Rain = 0
KWE1 182206Z 22007KT 23/04 A2985 RMK A01 T02330037  RH  028%=      5-min Rain = 0
KWE1 182207Z 23006KT 23/04 A2985 RMK A01 T02330036  RH  028%=      5-min Rain = 0
KWE1 182208Z 23006KT 23/04 A2985 RMK A01 T02330037  RH  028%=      5-min Rain = 0
KWE1 182209Z 22005KT 23/04 A2985 RMK A01 T02330037  RH  028%=      5-min Rain = 0
KWE1 182210Z 21007KT 23/04 A2985 RMK A01 T02330038  RH  028%=      5-min Rain = 0
KWE1 182211Z 21006KT 23/04 A2985 RMK A01 T02330037  RH  028%=      5-min Rain = 0
KWE1 182212Z 21008KT 23/04 A2985 RMK A01 T02340037  RH  028%=      5-min Rain = 0
KWE1 182213Z 22007KT 23/04 A2985 RMK A01 T02330036  RH  028%=      5-min Rain = 0
KWE1 182214Z 22006KT 23/04 A2985 RMK A01 T02330036  RH  028%=      5-min Rain = 0
KWE1 182215Z 23006KT 23/04 A2985 RMK A01 T02330036  RH  028%=      5-min Rain = 0
KWE1 182216Z 22005KT 23/04 A2985 RMK A01 T02330037  RH  028%=      5-min Rain = 0
KWE1 182217Z 21007KT 23/04 A2985 RMK A01 T02330035  RH  028%=      5-min Rain = 0
KWE1 182218Z 22008KT 23/04 A2985 RMK A01 T02320035  RH  028%=      5-min Rain = 0
KWE1 182219Z 21009KT 23/03 A2985 RMK A01 T02320034  RH  028%=      5-min Rain = 0
KWE1 182220Z 22009KT 23/04 A2986 RMK A01 T02320035  RH  028%=      5-min Rain = 0
KWE1 182221Z 22007KT 23/04 A2986 RMK A01 T02310036  RH  028%=      5-min Rain = 0
KWE1 182222Z 22007KT 23/04 A2986 RMK A01 T02310035  RH  028%=      5-min Rain = 0
KWE1 182223Z 21007KT 23/04 A2986 RMK A01 T02310035  RH  028%=      5-min Rain = 0
KWE1 182224Z 20006KT 23/04 A2986 RMK A01 T02310035  RH  028%=      5-min Rain = 0
KWE1 182225Z 21006KT 23/04 A2986 RMK A01 T02310036  RH  028%=      5-min Rain = 0
KWE1 182226Z 21006KT 23/04 A2986 RMK A01 T02310036  RH  028%=      5-min Rain = 0
KWE1 182227Z 21007KT 23/04 A2986 RMK A01 T02310036  RH  028%=      5-min Rain = 0
KWE1 182228Z 21008KT 23/03 A2986 RMK A01 T02310034  RH  028%=      5-min Rain = 0
KWE1 182229Z 22007KT 23/03 A2986 RMK A01 T02310034  RH  028%=      5-min Rain = 0
KWE1 182230Z 23008KT 23/03 A2986 RMK A01 T02310034  RH  028%=      5-min Rain = 0
KWE1 182231Z 23007KT 23/03 A2986 RMK A01 T02300032  RH  027%=      5-min Rain = 0
KWE1 182232Z 22007KT 23/03 A2985 RMK A01 T02300032  RH  027%=      5-min Rain = 0
KWE1 182233Z 22007KT 23/03 A2985 RMK A01 T02300032  RH  027%=      5-min Rain = 0
KWE1 182234Z 23006KT 23/03 A2985 RMK A01 T02300031  RH  027%=      5-min Rain = 0
KWE1 182235Z 22006KT 23/03 A2985 RMK A01 T02300032  RH  027%=      5-min Rain = 0
KWE1 182236Z 22008KT 23/03 A2985 RMK A01 T02300033  RH  028%=      5-min Rain = 0
KWE1 182237Z 22007KT 23/03 A2985 RMK A01 T02290031  RH  027%=      5-min Rain = 0
KWE1 182238Z 22008KT 23/03 A2985 RMK A01 T02290030  RH  027%=      5-min Rain = 0
KWE1 182239Z 22009KT 23/03 A2985 RMK A01 T02280029  RH  027%=      5-min Rain = 0
KWE1 182240Z 22009KT 23/03 A2985 RMK A01 T02280030  RH  027%=      5-min Rain = 0
KWE1 182241Z 23008KT 23/03 A2985 RMK A01 T02280029  RH  027%=      5-min Rain = 0
KWE1 182242Z 22006KT 23/03 A2985 RMK A01 T02270029  RH  027%=      5-min Rain = 0
KWE1 182243Z 23007KT 23/03 A2986 RMK A01 T02270029  RH  027%=      5-min Rain = 0
KWE1 182244Z 22005KT 23/03 A2986 RMK A01 T02270029  RH  027%=      5-min Rain = 0
KWE1 182245Z 23006KT 23/03 A2986 RMK A01 T02270029  RH  027%=      5-min Rain = 0
KWE1 182246Z 22006KT 23/03 A2986 RMK A01 T02270029  RH  027%=      5-min Rain = 0
KWE1 182247Z 22006KT 23/03 A2986 RMK A01 T02270030  RH  027%=      5-min Rain = 0
KWE1 182248Z 22006KT 23/03 A2986 RMK A01 T02270029  RH  027%=      5-min Rain = 0
KWE1 182249Z 23005KT 23/03 A2986 RMK A01 T02260029  RH  028%=      5-min Rain = 0
KWE1 182250Z 21005KT 23/03 A2986 RMK A01 T02250029  RH  028%=      5-min Rain = 0
KWE1 182251Z 22005KT 23/03 A2986 RMK A01 T02250031  RH  028%=      5-min Rain = 0
KWE1 182252Z 21005KT 23/03 A2986 RMK A01 T02250030  RH  028%=      5-min Rain = 0
KWE1 182253Z 21005KT 22/03 A2986 RMK A01 T02240031  RH  028%=      5-min Rain = 0
KWE1 182254Z 21004KT 22/03 A2986 RMK A01 T02240030  RH  028%=      5-min Rain = 0
KWE1 182255Z 21003KT 22/03 A2986 RMK A01 T02230031  RH  028%=      5-min Rain = 0
KWE1 182256Z 21004KT 22/03 A2986 RMK A01 T02230031  RH  028%=      5-min Rain = 0
KWE1 182257Z 21004KT 22/03 A2986 RMK A01 T02240031  RH  028%=      5-min Rain = 0
KWE1 182258Z 21004KT 22/03 A2986 RMK A01 T02230030  RH  028%=      5-min Rain = 0
KWE1 182259Z 21003KT 22/03 A2986 RMK A01 T02230030  RH  028%=      5-min Rain = 0
KWE1 182300Z 21003KT 22/03 A2986 RMK A01 T02220030  RH  028%=      5-min Rain = 0
KWE1 182301Z 20004KT 22/03 A2986 RMK A01 T02220031  RH  028%=      5-min Rain = 0
KWE1 182302Z 21003KT 22/03 A2986 RMK A01 T02220031  RH  029%=      5-min Rain = 0
KWE1 182303Z 21003KT 22/03 A2986 RMK A01 T02210031  RH  029%=      5-min Rain = 0
KWE1 182304Z 22003KT 22/03 A2986 RMK A01 T02200031  RH  029%=      5-min Rain = 0
KWE1 182305Z 21002KT 22/03 A2986 RMK A01 T02200032  RH  029%=      5-min Rain = 0
KWE1 182306Z 22003KT 22/03 A2986 RMK A01 T02180031  RH  029%=      5-min Rain = 0
KWE1 182307Z 22003KT 22/03 A2986 RMK A01 T02170031  RH  029%=      5-min Rain = 0
KWE1 182308Z 22003KT 22/03 A2986 RMK A01 T02160031  RH  030%=      5-min Rain = 0
KWE1 182309Z 21003KT 22/03 A2986 RMK A01 T02150032  RH  030%=      5-min Rain = 0
KWE1 182310Z 22003KT 22/03 A2986 RMK A01 T02150032  RH  030%=      5-min Rain = 0
KWE1 182311Z 22003KT 21/03 A2986 RMK A01 T02140032  RH  030%=      5-min Rain = 0
KWE1 182312Z 22002KT 21/03 A2986 RMK A01 T02140033  RH  030%=      5-min Rain = 0
KWE1 182313Z 22002KT 21/03 A2986 RMK A01 T02140033  RH  030%=      5-min Rain = 0
KWE1 182314Z 22002KT 21/03 A2986 RMK A01 T02130032  RH  030%=      5-min Rain = 0
KWE1 182315Z 22002KT 21/03 A2986 RMK A01 T02120032  RH  030%=      5-min Rain = 0
KWE1 182316Z 23002KT 21/03 A2987 RMK A01 T02120032  RH  031%=      5-min Rain = 0
KWE1 182317Z 23002KT 21/03 A2987 RMK A01 T02110032  RH  031%=      5-min Rain = 0
KWE1 182318Z 23002KT 21/03 A2987 RMK A01 T02110032  RH  031%=      5-min Rain = 0
KWE1 182319Z 23002KT 21/03 A2987 RMK A01 T02110032  RH  031%=      5-min Rain = 0
KWE1 182320Z 23002KT 21/03 A2987 RMK A01 T02110032  RH  031%=      5-min Rain = 0
KWE1 182321Z 23002KT 21/03 A2987 RMK A01 T02110032  RH  031%=      5-min Rain = 0
KWE1 182322Z 23002KT 21/03 A2987 RMK A01 T02100032  RH  031%=      5-min Rain = 0
KWE1 182323Z 22002KT 21/03 A2987 RMK A01 T02090031  RH  031%=      5-min Rain = 0
KWE1 182324Z 22002KT 21/03 A2987 RMK A01 T02080031  RH  031%=      5-min Rain = 0
KWE1 182325Z 22002KT 21/03 A2987 RMK A01 T02080032  RH  031%=      5-min Rain = 0
KWE1 182326Z 22002KT 21/03 A2987 RMK A01 T02080031  RH  031%=      5-min Rain = 0
KWE1 182327Z 22002KT 21/03 A2987 RMK A01 T02070031  RH  031%=      5-min Rain = 0
KWE1 182328Z 22002KT 21/03 A2987 RMK A01 T02070031  RH  031%=      5-min Rain = 0
KWE1 182329Z 23002KT 21/03 A2987 RMK A01 T02060031  RH  031%=      5-min Rain = 0
KWE1 182330Z 22001KT 21/03 A2987 RMK A01 T02060030  RH  031%=      5-min Rain = 0
KWE1 182331Z 23001KT 21/03 A2987 RMK A01 T02050030  RH  031%=      5-min Rain = 0
KWE1 182332Z 22000KT 21/03 A2987 RMK A01 T02050031  RH  032%=      5-min Rain = 0
KWE1 182333Z 22000KT 20/03 A2987 RMK A01 T02040031  RH  032%=      5-min Rain = 0
KWE1 182334Z 22001KT 20/03 A2987 RMK A01 T02020031  RH  032%=      5-min Rain = 0
KWE1 182335Z 21001KT 20/03 A2987 RMK A01 T02010030  RH  032%=      5-min Rain = 0
KWE1 182336Z 20001KT 20/03 A2987 RMK A01 T01990030  RH  033%=      5-min Rain = 0
KWE1 182337Z 20001KT 20/03 A2987 RMK A01 T01970030  RH  033%=      5-min Rain = 0
KWE1 182338Z 20001KT 20/03 A2987 RMK A01 T01960030  RH  033%=      5-min Rain = 0
KWE1 182339Z 19000KT 19/03 A2987 RMK A01 T01940030  RH  034%=      5-min Rain = 0
KWE1 182340Z 00000KT 19/03 A2987 RMK A01 T01920031  RH  034%=      5-min Rain = 0
KWE1 182341Z 00000KT 19/03 A2987 RMK A01 T01890031  RH  035%=      5-min Rain = 0
KWE1 182342Z 00000KT 19/03 A2987 RMK A01 T01880031  RH  035%=      5-min Rain = 0
KWE1 182343Z 00000KT 19/03 A2987 RMK A01 T01870032  RH  036%=      5-min Rain = 0
KWE1 182344Z 00000KT 19/03 A2987 RMK A01 T01850030  RH  036%=      5-min Rain = 0
KWE1 182345Z 00000KT 18/03 A2987 RMK A01 T01820030  RH  036%=      5-min Rain = 0
KWE1 182346Z 00000KT 18/03 A2987 RMK A01 T01810030  RH  037%=      5-min Rain = 0
KWE1 182347Z 00000KT 18/03 A2987 RMK A01 T01790030  RH  037%=      5-min Rain = 0
KWE1 182348Z 00000KT 18/03 A2987 RMK A01 T01770030  RH  038%=      5-min Rain = 0
KWE1 182349Z 00000KT 18/03 A2987 RMK A01 T01750029  RH  038%=      5-min Rain = 0
KWE1 182350Z 00000KT 17/03 A2988 RMK A01 T01730027  RH  038%=      5-min Rain = 0
KWE1 182351Z 00000KT 17/03 A2988 RMK A01 T01720026  RH  038%=      5-min Rain = 0
KWE1 182352Z 00000KT 17/03 A2988 RMK A01 T01710026  RH  038%=      5-min Rain = 0
KWE1 182353Z 00000KT 17/03 A2988 RMK A01 T01710026  RH  038%=      5-min Rain = 0
KWE1 182354Z 00000KT 17/03 A2988 RMK A01 T01710027  RH  038%=      5-min Rain = 0
KWE1 182355Z 00000KT 17/03 A2988 RMK A01 T01710029  RH  039%=      5-min Rain = 0
KWE1 182356Z 00000KT 17/03 A2988 RMK A01 T01700030  RH  039%=      5-min Rain = 0
KWE1 182357Z 00000KT 17/03 A2988 RMK A01 T01690030  RH  040%=      5-min Rain = 0
KWE1 182358Z 00000KT 17/03 A2988 RMK A01 T01670030  RH  040%=      5-min Rain = 0
KWE1 182359Z 00000KT 17/03 A2988 RMK A01 T01660030  RH  040%=      5-min Rain = 0
KWE1 190000Z 00000KT 17/03 A2988 RMK A01 T01650029  RH  040%=      5-min Rain = 0
KWE1 190001Z 00000KT 16/03 A2988 RMK A01 T01640029  RH  040%=      5-min Rain = 0
KWE1 190002Z 00000KT 16/03 A2988 RMK A01 T01630029  RH  041%=      5-min Rain = 0
KWE1 190003Z 00000KT 16/03 A2988 RMK A01 T01610030  RH  041%=      5-min Rain = 0
KWE1 190004Z 00000KT 16/03 A2988 RMK A01 T01600030  RH  042%=      5-min Rain = 0
KWE1 190005Z 00000KT 16/03 A2988 RMK A01 T01580029  RH  042%=      5-min Rain = 0
KWE1 190006Z 00000KT 16/03 A2988 RMK A01 T01560029  RH  043%=      5-min Rain = 0
KWE1 190007Z 00000KT 16/03 A2988 RMK A01 T01550029  RH  043%=      5-min Rain = 0
KWE1 190008Z 05000KT 15/03 A2988 RMK A01 T01540028  RH  043%=      5-min Rain = 0
KWE1 190009Z 05001KT 15/03 A2988 RMK A01 T01530027  RH  043%=      5-min Rain = 0
KWE1 190010Z 06001KT 15/03 A2988 RMK A01 T01540027  RH  042%=      5-min Rain = 0
KWE1 190011Z 06001KT 15/03 A2988 RMK A01 T01540027  RH  042%=      5-min Rain = 0
KWE1 190012Z 06001KT 15/03 A2988 RMK A01 T01540026  RH  042%=      5-min Rain = 0
KWE1 190013Z 06001KT 15/03 A2989 RMK A01 T01540026  RH  042%=      5-min Rain = 0
KWE1 190014Z 07001KT 16/03 A2989 RMK A01 T01550025  RH  042%=      5-min Rain = 0
KWE1 190015Z 07001KT 16/03 A2989 RMK A01 T01550026  RH  042%=      5-min Rain = 0
KWE1 190016Z 07001KT 16/03 A2989 RMK A01 T01550029  RH  043%=      5-min Rain = 0
KWE1 190017Z 07001KT 16/03 A2989 RMK A01 T01550030  RH  043%=      5-min Rain = 0
KWE1 190018Z 08001KT 16/03 A2989 RMK A01 T01550031  RH  043%=      5-min Rain = 0
KWE1 190019Z 09001KT 16/03 A2989 RMK A01 T01550032  RH  044%=      5-min Rain = 0
KWE1 190020Z 11000KT 16/04 A2989 RMK A01 T01550036  RH  045%=      5-min Rain = 0
KWE1 190021Z 13000KT 16/04 A2989 RMK A01 T01550037  RH  045%=      5-min Rain = 0
KWE1 190022Z 14001KT 15/04 A2989 RMK A01 T01540036  RH  045%=      5-min Rain = 0
KWE1 190023Z 14001KT 15/04 A2989 RMK A01 T01540036  RH  045%=      5-min Rain = 0
KWE1 190024Z 15001KT 15/03 A2989 RMK A01 T01530034  RH  045%=      5-min Rain = 0
KWE1 190025Z 15001KT 15/03 A2989 RMK A01 T01490031  RH  045%=      5-min Rain = 0
KWE1 190026Z 16002KT 15/03 A2989 RMK A01 T01450030  RH  046%=      5-min Rain = 0
KWE1 190027Z 16002KT 14/03 A2989 RMK A01 T01410028  RH  047%=      5-min Rain = 0
KWE1 190028Z 16002KT 14/03 A2989 RMK A01 T01380027  RH  047%=      5-min Rain = 0
KWE1 190029Z 16002KT 14/03 A2989 RMK A01 T01350026  RH  048%=      5-min Rain = 0
KWE1 190030Z 16002KT 13/03 A2989 RMK A01 T01330026  RH  048%=      5-min Rain = 0
KWE1 190031Z 16002KT 13/03 A2989 RMK A01 T01310026  RH  049%=      5-min Rain = 0
KWE1 190032Z 17002KT 13/03 A2989 RMK A01 T01300025  RH  049%=      5-min Rain = 0
KWE1 190033Z 17002KT 13/03 A2989 RMK A01 T01290025  RH  049%=      5-min Rain = 0
KWE1 190034Z 17002KT 13/03 A2989 RMK A01 T01290026  RH  050%=      5-min Rain = 0
KWE1 190035Z 17002KT 13/03 A2989 RMK A01 T01290026  RH  049%=      5-min Rain = 0
KWE1 190036Z 17002KT 13/03 A2989 RMK A01 T01310026  RH  049%=      5-min Rain = 0
KWE1 190037Z 16002KT 13/03 A2989 RMK A01 T01310026  RH  049%=      5-min Rain = 0
KWE1 190038Z 16002KT 13/03 A2989 RMK A01 T01320026  RH  049%=      5-min Rain = 0
KWE1 190039Z 16002KT 13/03 A2989 RMK A01 T01330027  RH  048%=      5-min Rain = 0
KWE1 190040Z 16002KT 14/03 A2989 RMK A01 T01350027  RH  048%=      5-min Rain = 0
KWE1 190041Z 16002KT 14/03 A2989 RMK A01 T01360027  RH  048%=      5-min Rain = 0
KWE1 190042Z 16002KT 14/03 A2989 RMK A01 T01370027  RH  047%=      5-min Rain = 0
KWE1 190043Z 16003KT 14/03 A2989 RMK A01 T01380027  RH  047%=      5-min Rain = 0
KWE1 190044Z 16003KT 14/03 A2989 RMK A01 T01370026  RH  047%=      5-min Rain = 0
KWE1 190045Z 17003KT 14/03 A2989 RMK A01 T01360025  RH  047%=      5-min Rain = 0
KWE1 190046Z 17003KT 14/03 A2989 RMK A01 T01350025  RH  047%=      5-min Rain = 0
KWE1 190047Z 17003KT 13/02 A2989 RMK A01 T01330024  RH  048%=      5-min Rain = 0
KWE1 190048Z 17004KT 13/02 A2989 RMK A01 T01310024  RH  048%=      5-min Rain = 0
KWE1 190049Z 16004KT 13/02 A2989 RMK A01 T01300024  RH  048%=      5-min Rain = 0
KWE1 190050Z 16005KT 13/02 A2989 RMK A01 T01290024  RH  049%=      5-min Rain = 0
KWE1 190051Z 15006KT 13/02 A299 RMK A01 T01280024  RH  049%=      5-min Rain = 0
KWE1 190052Z 15005KT 13/02 A299 RMK A01 T01260024  RH  050%=      5-min Rain = 0
KWE1 190053Z 14005KT 13/02 A299 RMK A01 T01250024  RH  050%=      5-min Rain = 0
KWE1 190054Z 14005KT 13/03 A299 RMK A01 T01250025  RH  050%=      5-min Rain = 0
KWE1 190055Z 14005KT 12/03 A299 RMK A01 T01240025  RH  051%=      5-min Rain = 0
KWE1 190056Z 15005KT 12/03 A299 RMK A01 T01240025  RH  051%=      5-min Rain = 0
KWE1 190057Z 15005KT 12/03 A299 RMK A01 T01240025  RH  051%=      5-min Rain = 0
KWE1 190058Z 16005KT 13/03 A299 RMK A01 T01250026  RH  051%=      5-min Rain = 0
KWE1 190059Z 16005KT 13/03 A299 RMK A01 T01260026  RH  050%=      5-min Rain = 0
KWE1 190100Z 16005KT 13/03 A299 RMK A01 T01280027  RH  050%=      5-min Rain = 0
KWE1 190101Z 16005KT 13/03 A299 RMK A01 T01300027  RH  050%=      5-min Rain = 0
KWE1 190102Z 16005KT 13/03 A299 RMK A01 T01310027  RH  049%=      5-min Rain = 0
KWE1 190103Z 17005KT 13/03 A299 RMK A01 T01320027  RH  049%=      5-min Rain = 0
KWE1 190104Z 17005KT 13/03 A299 RMK A01 T01320027  RH  049%=      5-min Rain = 0
KWE1 190105Z 17005KT 13/03 A299 RMK A01 T01320026  RH  049%=      5-min Rain = 0
KWE1 190106Z 17005KT 13/03 A299 RMK A01 T01320026  RH  049%=      5-min Rain = 0
KWE1 190107Z 17005KT 13/03 A299 RMK A01 T01310026  RH  049%=      5-min Rain = 0
KWE1 190108Z 17005KT 13/03 A299 RMK A01 T01300026  RH  049%=      5-min Rain = 0
KWE1 190109Z 17004KT 13/03 A299 RMK A01 T01290026  RH  049%=      5-min Rain = 0
KWE1 190110Z 16004KT 13/03 A299 RMK A01 T01280026  RH  050%=      5-min Rain = 0
KWE1 190111Z 16004KT 13/03 A299 RMK A01 T01260025  RH  050%=      5-min Rain = 0
KWE1 190112Z 16004KT 13/03 A299 RMK A01 T01250025  RH  051%=      5-min Rain = 0
KWE1 190113Z 16004KT 12/03 A299 RMK A01 T01230025  RH  051%=      5-min Rain = 0
KWE1 190114Z 15004KT 12/03 A299 RMK A01 T01230025  RH  051%=      5-min Rain = 0
KWE1 190115Z 15004KT 12/03 A299 RMK A01 T01230025  RH  051%=      5-min Rain = 0
KWE1 190116Z 15004KT 12/03 A299 RMK A01 T01230025  RH  051%=      5-min Rain = 0
KWE1 190117Z 15004KT 12/03 A299 RMK A01 T01230025  RH  051%=      5-min Rain = 0
KWE1 190118Z 15004KT 12/03 A299 RMK A01 T01220025  RH  051%=      5-min Rain = 0
KWE1 190119Z 15005KT 12/03 A299 RMK A01 T01210025  RH  052%=      5-min Rain = 0
KWE1 190120Z 16005KT 12/03 A299 RMK A01 T01210025  RH  052%=      5-min Rain = 0
KWE1 190121Z 17005KT 12/03 A299 RMK A01 T01200025  RH  052%=      5-min Rain = 0
KWE1 190122Z 17005KT 12/02 A299 RMK A01 T01200024  RH  052%=      5-min Rain = 0
KWE1 190123Z 17005KT 12/03 A299 RMK A01 T01190025  RH  052%=      5-min Rain = 0
KWE1 190124Z 18006KT 12/03 A299 RMK A01 T01180025  RH  053%=      5-min Rain = 0
KWE1 190125Z 18006KT 12/03 A299 RMK A01 T01180026  RH  053%=      5-min Rain = 0
KWE1 190126Z 18006KT 12/03 A299 RMK A01 T01180026  RH  053%=      5-min Rain = 0
KWE1 190127Z 17006KT 12/03 A299 RMK A01 T01170026  RH  054%=      5-min Rain = 0
KWE1 190128Z 18006KT 12/03 A299 RMK A01 T01170026  RH  054%=      5-min Rain = 0
KWE1 190129Z 18006KT 12/03 A299 RMK A01 T01180027  RH  054%=      5-min Rain = 0
KWE1 190130Z 18006KT 12/03 A299 RMK A01 T01190028  RH  053%=      5-min Rain = 0
KWE1 190131Z 18006KT 12/03 A299 RMK A01 T01210028  RH  053%=      5-min Rain = 0
KWE1 190132Z 18007KT 12/03 A299 RMK A01 T01240028  RH  052%=      5-min Rain = 0
KWE1 190133Z 18007KT 13/03 A299 RMK A01 T01260029  RH  052%=      5-min Rain = 0
KWE1 190134Z 18007KT 13/03 A299 RMK A01 T01260028  RH  051%=      5-min Rain = 0
KWE1 190135Z 18007KT 13/03 A299 RMK A01 T01260028  RH  051%=      5-min Rain = 0
KWE1 190136Z 19007KT 13/03 A299 RMK A01 T01250027  RH  051%=      5-min Rain = 0
KWE1 190137Z 18006KT 12/03 A299 RMK A01 T01240027  RH  052%=      5-min Rain = 0
KWE1 190138Z 18006KT 12/03 A299 RMK A01 T01240027  RH  052%=      5-min Rain = 0
KWE1 190139Z 18007KT 12/03 A299 RMK A01 T01230027  RH  052%=      5-min Rain = 0
KWE1 190140Z 18007KT 12/03 A2991 RMK A01 T01230027  RH  052%=      5-min Rain = 0
KWE1 190141Z 18007KT 12/03 A2991 RMK A01 T01240027  RH  052%=      5-min Rain = 0
KWE1 190142Z 18006KT 12/03 A2991 RMK A01 T01240026  RH  051%=      5-min Rain = 0
KWE1 190143Z 18007KT 13/03 A2991 RMK A01 T01260027  RH  051%=      5-min Rain = 0
KWE1 190144Z 18007KT 13/03 A2991 RMK A01 T01280027  RH  050%=      5-min Rain = 0
KWE1 190145Z 18007KT 13/03 A2991 RMK A01 T01310027  RH  049%=      5-min Rain = 0
KWE1 190146Z 18007KT 13/03 A2991 RMK A01 T01330027  RH  049%=      5-min Rain = 0
KWE1 190147Z 18006KT 13/03 A2991 RMK A01 T01340027  RH  048%=      5-min Rain = 0
KWE1 190148Z 18006KT 14/03 A2991 RMK A01 T01350027  RH  048%=      5-min Rain = 0
KWE1 190149Z 18006KT 14/03 A2991 RMK A01 T01350027  RH  048%=      5-min Rain = 0
KWE1 190150Z 18006KT 14/03 A2991 RMK A01 T01350027  RH  048%=      5-min Rain = 0
KWE1 190151Z 18006KT 14/03 A2991 RMK A01 T01350027  RH  048%=      5-min Rain = 0
KWE1 190152Z 18006KT 13/03 A2991 RMK A01 T01340027  RH  049%=      5-min Rain = 0
KWE1 190153Z 18006KT 13/03 A2991 RMK A01 T01330028  RH  049%=      5-min Rain = 0
KWE1 190154Z 18007KT 13/03 A2991 RMK A01 T01310027  RH  049%=      5-min Rain = 0
KWE1 190155Z 18007KT 13/03 A2991 RMK A01 T01300027  RH  050%=      5-min Rain = 0
KWE1 190156Z 18007KT 13/03 A2991 RMK A01 T01300028  RH  050%=      5-min Rain = 0
KWE1 190157Z 18007KT 13/03 A2991 RMK A01 T01290028  RH  050%=      5-min Rain = 0
KWE1 190158Z 18007KT 13/03 A2991 RMK A01 T01290029  RH  050%=      5-min Rain = 0
KWE1 190159Z 18007KT 13/03 A2991 RMK A01 T01290029  RH  050%=      5-min Rain = 0
KWE1 190200Z 18007KT 13/03 A2991 RMK A01 T01280028  RH  050%=      5-min Rain = 0
KWE1 190201Z 18007KT 13/03 A2991 RMK A01 T01270028  RH  051%=      5-min Rain = 0
KWE1 190202Z 18007KT 13/03 A2991 RMK A01 T01260027  RH  051%=      5-min Rain = 0
KWE1 190203Z 19007KT 13/03 A2991 RMK A01 T01250028  RH  051%=      5-min Rain = 0
KWE1 190204Z 19007KT 12/03 A2991 RMK A01 T01240027  RH  052%=      5-min Rain = 0
KWE1 190205Z 19007KT 12/03 A2991 RMK A01 T01240028  RH  052%=      5-min Rain = 0
KWE1 190206Z 19006KT 13/03 A2991 RMK A01 T01250029  RH  052%=      5-min Rain = 0
KWE1 190207Z 19006KT 13/03 A2991 RMK A01 T01260029  RH  052%=      5-min Rain = 0
KWE1 190208Z 19006KT 13/03 A2991 RMK A01 T01270030  RH  052%=      5-min Rain = 0
KWE1 190209Z 19006KT 13/03 A2991 RMK A01 T01270030  RH  051%=      5-min Rain = 0
KWE1 190210Z 20005KT 13/03 A2991 RMK A01 T01290030  RH  051%=      5-min Rain = 0
KWE1 190211Z 20005KT 13/03 A2991 RMK A01 T01290030  RH  051%=      5-min Rain = 0
KWE1 190212Z 20005KT 13/03 A2991 RMK A01 T01300031  RH  051%=      5-min Rain = 0
KWE1 190213Z 21004KT 13/03 A2991 RMK A01 T01300032  RH  051%=      5-min Rain = 0
KWE1 190214Z 22004KT 13/03 A2991 RMK A01 T01300032  RH  051%=      5-min Rain = 0
KWE1 190215Z 22003KT 13/03 A2992 RMK A01 T01300032  RH  051%=      5-min Rain = 0
KWE1 190216Z 23003KT 13/03 A2992 RMK A01 T01300032  RH  051%=      5-min Rain = 0
KWE1 190217Z 24003KT 13/03 A2992 RMK A01 T01300031  RH  051%=      5-min Rain = 0
KWE1 190218Z 24003KT 13/03 A2992 RMK A01 T01280029  RH  051%=      5-min Rain = 0
KWE1 190219Z 23004KT 13/03 A2992 RMK A01 T01270029  RH  051%=      5-min Rain = 0
KWE1 190220Z 24003KT 13/03 A2992 RMK A01 T01250028  RH  052%=      5-min Rain = 0
KWE1 190221Z 24004KT 12/03 A2992 RMK A01 T01230028  RH  052%=      5-min Rain = 0
KWE1 190222Z 23003KT 12/03 A2992 RMK A01 T01220028  RH  053%=      5-min Rain = 0
KWE1 190223Z 22004KT 12/03 A2992 RMK A01 T01210028  RH  053%=      5-min Rain = 0
KWE1 190224Z 23003KT 12/03 A2992 RMK A01 T01210028  RH  053%=      5-min Rain = 0
KWE1 190225Z 23003KT 12/03 A2992 RMK A01 T01210028  RH  053%=      5-min Rain = 0
KWE1 190226Z 22002KT 12/03 A2992 RMK A01 T01200028  RH  053%=      5-min Rain = 0
KWE1 190227Z 23002KT 12/03 A2992 RMK A01 T01200029  RH  054%=      5-min Rain = 0
KWE1 190228Z 22002KT 12/03 A2992 RMK A01 T01180028  RH  054%=      5-min Rain = 0
KWE1 190229Z 23002KT 12/03 A2992 RMK A01 T01150029  RH  055%=      5-min Rain = 0
KWE1 190230Z 22002KT 11/03 A2992 RMK A01 T01130028  RH  056%=      5-min Rain = 0
KWE1 190231Z 20002KT 11/03 A2992 RMK A01 T01120029  RH  056%=      5-min Rain = 0
KWE1 190232Z 20001KT 11/03 A2992 RMK A01 T01110028  RH  057%=      5-min Rain = 0
KWE1 190233Z 22001KT 11/03 A2992 RMK A01 T01110029  RH  057%=      5-min Rain = 0
KWE1 190234Z 21001KT 11/03 A2992 RMK A01 T01100029  RH  057%=      5-min Rain = 0
KWE1 190235Z 21001KT 11/03 A2992 RMK A01 T01100029  RH  057%=      5-min Rain = 0
KWE1 190236Z 21001KT 11/03 A2992 RMK A01 T01110029  RH  057%=      5-min Rain = 0
KWE1 190237Z 21002KT 11/03 A2992 RMK A01 T01100029  RH  057%=      5-min Rain = 0
KWE1 190238Z 21002KT 11/03 A2992 RMK A01 T01110030  RH  057%=      5-min Rain = 0
KWE1 190239Z 22003KT 11/03 A2992 RMK A01 T01130031  RH  057%=      5-min Rain = 0
KWE1 190240Z 22003KT 12/03 A2992 RMK A01 T01150032  RH  057%=      5-min Rain = 0
KWE1 190241Z 22003KT 12/03 A2992 RMK A01 T01170032  RH  056%=      5-min Rain = 0
KWE1 190242Z 22003KT 12/03 A2992 RMK A01 T01170032  RH  056%=      5-min Rain = 0
KWE1 190243Z 22003KT 12/03 A2992 RMK A01 T01170031  RH  056%=      5-min Rain = 0
KWE1 190244Z 23003KT 12/03 A2992 RMK A01 T01180031  RH  055%=      5-min Rain = 0
KWE1 190245Z 23003KT 12/03 A2992 RMK A01 T01170031  RH  055%=      5-min Rain = 0
KWE1 190246Z 23004KT 12/03 A2992 RMK A01 T01160030  RH  055%=      5-min Rain = 0
KWE1 190247Z 23004KT 12/03 A2992 RMK A01 T01150029  RH  056%=      5-min Rain = 0
KWE1 190248Z 23004KT 11/03 A2992 RMK A01 T01130029  RH  056%=      5-min Rain = 0
KWE1 190249Z 23004KT 11/03 A2992 RMK A01 T01110028  RH  056%=      5-min Rain = 0
KWE1 190250Z 23004KT 11/03 A2992 RMK A01 T01110028  RH  057%=      5-min Rain = 0
KWE1 190251Z 22004KT 11/03 A2992 RMK A01 T01090028  RH  057%=      5-min Rain = 0
KWE1 190252Z 21004KT 11/03 A2992 RMK A01 T01080027  RH  058%=      5-min Rain = 0
KWE1 190253Z 21004KT 11/03 A2992 RMK A01 T01070028  RH  058%=      5-min Rain = 0
KWE1 190254Z 21004KT 11/03 A2992 RMK A01 T01060027  RH  058%=      5-min Rain = 0
KWE1 190255Z 20004KT 11/03 A2992 RMK A01 T01050027  RH  059%=      5-min Rain = 0
KWE1 190256Z 20004KT 10/03 A2992 RMK A01 T01040028  RH  059%=      5-min Rain = 0
KWE1 190257Z 20004KT 10/03 A2992 RMK A01 T01030028  RH  060%=      5-min Rain = 0
KWE1 190258Z 19004KT 10/03 A2992 RMK A01 T01020028  RH  060%=      5-min Rain = 0
KWE1 190259Z 19004KT 10/03 A2992 RMK A01 T01000026  RH  060%=      5-min Rain = 0
KWE1 190300Z 19004KT 10/03 A2992 RMK A01 T00980026  RH  061%=      5-min Rain = 0
KWE1 190301Z 18004KT 10/03 A2992 RMK A01 T00970026  RH  061%=      5-min Rain = 0
KWE1 190302Z 18004KT 10/03 A2992 RMK A01 T00960026  RH  061%=      5-min Rain = 0
KWE1 190303Z 18004KT 10/03 A2992 RMK A01 T00960026  RH  062%=      5-min Rain = 0
KWE1 190304Z 18004KT 09/03 A2992 RMK A01 T00940026  RH  062%=      5-min Rain = 0
KWE1 190305Z 18004KT 09/03 A2992 RMK A01 T00940025  RH  062%=      5-min Rain = 0
KWE1 190306Z 18004KT 09/03 A2992 RMK A01 T00930025  RH  063%=      5-min Rain = 0
KWE1 190307Z 18003KT 09/03 A2991 RMK A01 T00920026  RH  063%=      5-min Rain = 0
KWE1 190308Z 19003KT 09/03 A2992 RMK A01 T00920025  RH  063%=      5-min Rain = 0
KWE1 190309Z 19003KT 09/03 A2992 RMK A01 T00910025  RH  063%=      5-min Rain = 0
KWE1 190310Z 19003KT 09/03 A2992 RMK A01 T00910025  RH  063%=      5-min Rain = 0
KWE1 190311Z 19003KT 09/03 A2992 RMK A01 T00900026  RH  064%=      5-min Rain = 0
KWE1 190312Z 19003KT 09/03 A2992 RMK A01 T00900027  RH  064%=      5-min Rain = 0
KWE1 190313Z 20004KT 09/03 A2992 RMK A01 T00910028  RH  064%=      5-min Rain = 0
KWE1 190314Z 19004KT 09/03 A2992 RMK A01 T00930028  RH  064%=      5-min Rain = 0
KWE1 190315Z 19004KT 10/03 A2992 RMK A01 T00950029  RH  064%=      5-min Rain = 0
KWE1 190316Z 19004KT 10/03 A2992 RMK A01 T00960029  RH  063%=      5-min Rain = 0
KWE1 190317Z 19004KT 10/03 A2992 RMK A01 T00970029  RH  063%=      5-min Rain = 0
KWE1 190318Z 19004KT 10/03 A2992 RMK A01 T00980030  RH  062%=      5-min Rain = 0
KWE1 190319Z 19004KT 10/03 A2992 RMK A01 T00990030  RH  062%=      5-min Rain = 0
KWE1 190320Z 19004KT 10/03 A2992 RMK A01 T01000030  RH  062%=      5-min Rain = 0
KWE1 190321Z 19004KT 10/03 A2992 RMK A01 T01010030  RH  061%=      5-min Rain = 0
KWE1 190322Z 19004KT 10/03 A2992 RMK A01 T01010029  RH  061%=      5-min Rain = 0
KWE1 190323Z 20003KT 10/03 A2992 RMK A01 T01010029  RH  061%=      5-min Rain = 0
KWE1 190324Z 20003KT 10/03 A2992 RMK A01 T01000029  RH  061%=      5-min Rain = 0
KWE1 190325Z 20004KT 10/03 A2992 RMK A01 T01020031  RH  061%=      5-min Rain = 0
KWE1 190326Z 20003KT 11/03 A2992 RMK A01 T01050032  RH  061%=      5-min Rain = 0
KWE1 190327Z 20004KT 11/03 A2992 RMK A01 T01070032  RH  060%=      5-min Rain = 0
KWE1 190328Z 20004KT 11/03 A2992 RMK A01 T01090032  RH  059%=      5-min Rain = 0
KWE1 190329Z 21005KT 11/03 A2992 RMK A01 T01100031  RH  058%=      5-min Rain = 0
KWE1 190330Z 21005KT 11/03 A2992 RMK A01 T01090029  RH  058%=      5-min Rain = 0
KWE1 190331Z 21004KT 11/03 A2992 RMK A01 T01060027  RH  058%=      5-min Rain = 0
KWE1 190332Z 22004KT 10/03 A2992 RMK A01 T01030026  RH  059%=      5-min Rain = 0
KWE1 190333Z 22004KT 10/03 A2992 RMK A01 T01020027  RH  060%=      5-min Rain = 0
KWE1 190334Z 22004KT 10/03 A2992 RMK A01 T01010027  RH  060%=      5-min Rain = 0
KWE1 190335Z 22004KT 10/03 A2992 RMK A01 T00990027  RH  061%=      5-min Rain = 0
KWE1 190336Z 23004KT 10/03 A2992 RMK A01 T01000028  RH  061%=      5-min Rain = 0
KWE1 190337Z 23003KT 10/03 A2992 RMK A01 T01000028  RH  061%=      5-min Rain = 0
KWE1 190338Z 23004KT 10/03 A2992 RMK A01 T01010029  RH  061%=      5-min Rain = 0
KWE1 190339Z 23004KT 10/03 A2992 RMK A01 T01010029  RH  061%=      5-min Rain = 0
KWE1 190340Z 22004KT 10/03 A2992 RMK A01 T01010028  RH  060%=      5-min Rain = 0
KWE1 190341Z 22004KT 10/03 A2992 RMK A01 T01010028  RH  060%=      5-min Rain = 0
KWE1 190342Z 22004KT 10/03 A2992 RMK A01 T01000027  RH  061%=      5-min Rain = 0
KWE1 190343Z 21005KT 10/03 A2992 RMK A01 T00990028  RH  061%=      5-min Rain = 0
KWE1 190344Z 21005KT 10/03 A2992 RMK A01 T01000028  RH  061%=      5-min Rain = 0
KWE1 190345Z 21005KT 10/03 A2992 RMK A01 T01000028  RH  061%=      5-min Rain = 0
KWE1 190346Z 22005KT 10/03 A2992 RMK A01 T00990028  RH  061%=      5-min Rain = 0
KWE1 190347Z 22004KT 10/03 A2992 RMK A01 T00990029  RH  062%=      5-min Rain = 0
KWE1 190348Z 22004KT 10/03 A2992 RMK A01 T00990030  RH  062%=      5-min Rain = 0
KWE1 190349Z 22004KT 10/03 A2992 RMK A01 T00990031  RH  063%=      5-min Rain = 0
KWE1 190350Z 22004KT 10/03 A2992 RMK A01 T01000032  RH  063%=      5-min Rain = 0
KWE1 190351Z 22005KT 10/03 A2992 RMK A01 T01010032  RH  063%=      5-min Rain = 0
KWE1 190352Z 22005KT 10/03 A2992 RMK A01 T01010033  RH  062%=      5-min Rain = 0
KWE1 190353Z 22005KT 10/03 A2992 RMK A01 T01010032  RH  062%=      5-min Rain = 0
KWE1 190354Z 22006KT 10/03 A2992 RMK A01 T01020032  RH  062%=      5-min Rain = 0
KWE1 190355Z 22006KT 10/03 A2992 RMK A01 T01020032  RH  061%=      5-min Rain = 0
KWE1 190356Z 22006KT 10/03 A2992 RMK A01 T01020031  RH  061%=      5-min Rain = 0
KWE1 190357Z 22006KT 10/03 A2993 RMK A01 T01020031  RH  061%=      5-min Rain = 0
KWE1 190358Z 22006KT 10/03 A2993 RMK A01 T01000030  RH  061%=      5-min Rain = 0
KWE1 190359Z 22006KT 10/03 A2993 RMK A01 T01000030  RH  062%=      5-min Rain = 0
KWE1 190400Z 22006KT 10/03 A2993 RMK A01 T01000030  RH  062%=      5-min Rain = 0
KWE1 190401Z 22006KT 10/03 A2993 RMK A01 T00990030  RH  062%=      5-min Rain = 0
KWE1 190402Z 22006KT 10/03 A2993 RMK A01 T00990030  RH  062%=      5-min Rain = 0
KWE1 190403Z 22007KT 10/03 A2993 RMK A01 T00990031  RH  062%=      5-min Rain = 0
KWE1 190404Z 22006KT 10/03 A2993 RMK A01 T00990031  RH  062%=      5-min Rain = 0
KWE1 190405Z 22006KT 10/03 A2993 RMK A01 T00980030  RH  063%=      5-min Rain = 0
KWE1 190406Z 22005KT 10/03 A2993 RMK A01 T00970030  RH  063%=      5-min Rain = 0
KWE1 190407Z 22005KT 10/03 A2993 RMK A01 T00970031  RH  063%=      5-min Rain = 0
KWE1 190408Z 22005KT 10/03 A2993 RMK A01 T00970030  RH  063%=      5-min Rain = 0
KWE1 190409Z 22005KT 10/03 A2993 RMK A01 T00970031  RH  063%=      5-min Rain = 0
KWE1 190410Z 22005KT 10/03 A2993 RMK A01 T00980031  RH  063%=      5-min Rain = 0
KWE1 190411Z 22005KT 10/03 A2993 RMK A01 T00980031  RH  063%=      5-min Rain = 0
KWE1 190412Z 22005KT 10/03 A2993 RMK A01 T00990031  RH  063%=      5-min Rain = 0
KWE1 190413Z 22005KT 10/03 A2993 RMK A01 T00990031  RH  063%=      5-min Rain = 0
KWE1 190414Z 22005KT 10/03 A2993 RMK A01 T00990031  RH  063%=      5-min Rain = 0
KWE1 190415Z 22005KT 10/03 A2993 RMK A01 T00990031  RH  063%=      5-min Rain = 0
KWE1 190416Z 22005KT 10/03 A2993 RMK A01 T00990031  RH  063%=      5-min Rain = 0
KWE1 190417Z 21006KT 10/03 A2993 RMK A01 T00990031  RH  063%=      5-min Rain = 0
KWE1 190418Z 22006KT 10/03 A2993 RMK A01 T00980031  RH  063%=      5-min Rain = 0
KWE1 190419Z 21006KT 10/03 A2993 RMK A01 T00970032  RH  064%=      5-min Rain = 0
KWE1 190420Z 21006KT 10/03 A2993 RMK A01 T00970032  RH  064%=      5-min Rain = 0
KWE1 190421Z 21006KT 10/03 A2993 RMK A01 T00970032  RH  064%=      5-min Rain = 0
KWE1 190422Z 22006KT 10/03 A2993 RMK A01 T00970032  RH  064%=      5-min Rain = 0
KWE1 190423Z 22005KT 10/03 A2993 RMK A01 T00970031  RH  064%=      5-min Rain = 0
KWE1 190424Z 22005KT 10/03 A2992 RMK A01 T00970031  RH  064%=      5-min Rain = 0
KWE1 190425Z 22005KT 10/03 A2992 RMK A01 T00970031  RH  064%=      5-min Rain = 0
KWE1 190426Z 22005KT 10/03 A2992 RMK A01 T00960031  RH  064%=      5-min Rain = 0
KWE1 190427Z 22005KT 10/03 A2992 RMK A01 T00960030  RH  064%=      5-min Rain = 0
KWE1 190428Z 22005KT 10/03 A2992 RMK A01 T00960031  RH  064%=      5-min Rain = 0
KWE1 190429Z 22005KT 10/03 A2992 RMK A01 T00950030  RH  064%=      5-min Rain = 0
KWE1 190430Z 21005KT 10/03 A2992 RMK A01 T00950030  RH  064%=      5-min Rain = 0
KWE1 190431Z 21006KT 10/03 A2993 RMK A01 T00950031  RH  064%=      5-min Rain = 0
KWE1 190432Z 21006KT 10/03 A2993 RMK A01 T00950030  RH  064%=      5-min Rain = 0
KWE1 190433Z 22006KT 10/03 A2993 RMK A01 T00950030  RH  064%=      5-min Rain = 0
KWE1 190434Z 22005KT 09/03 A2993 RMK A01 T00940030  RH  064%=      5-min Rain = 0
KWE1 190435Z 22005KT 09/03 A2993 RMK A01 T00930029  RH  064%=      5-min Rain = 0
KWE1 190436Z 22005KT 09/03 A2993 RMK A01 T00930030  RH  065%=      5-min Rain = 0
KWE1 190437Z 22005KT 09/03 A2993 RMK A01 T00930029  RH  065%=      5-min Rain = 0
KWE1 190438Z 22005KT 09/03 A2993 RMK A01 T00920028  RH  065%=      5-min Rain = 0
KWE1 190439Z 21005KT 09/03 A2993 RMK A01 T00910028  RH  065%=      5-min Rain = 0
KWE1 190440Z 21006KT 09/03 A2993 RMK A01 T00910029  RH  065%=      5-min Rain = 0
KWE1 190441Z 21006KT 09/03 A2993 RMK A01 T00910030  RH  066%=      5-min Rain = 0
KWE1 190442Z 21006KT 09/03 A2993 RMK A01 T00910030  RH  066%=      5-min Rain = 0
KWE1 190443Z 22006KT 09/03 A2993 RMK A01 T00910030  RH  066%=      5-min Rain = 0
KWE1 190444Z 22005KT 09/03 A2993 RMK A01 T00920030  RH  065%=      5-min Rain = 0
KWE1 190445Z 22005KT 09/03 A2993 RMK A01 T00930031  RH  065%=      5-min Rain = 0
KWE1 190446Z 22005KT 09/03 A2993 RMK A01 T00930031  RH  065%=      5-min Rain = 0
KWE1 190447Z 22006KT 09/03 A2993 RMK A01 T00930031  RH  065%=      5-min Rain = 0
KWE1 190448Z 22005KT 09/03 A2993 RMK A01 T00930031  RH  065%=      5-min Rain = 0
KWE1 190449Z 22005KT 09/03 A2993 RMK A01 T00930031  RH  065%=      5-min Rain = 0
KWE1 190450Z 22005KT 09/03 A2993 RMK A01 T00930031  RH  065%=      5-min Rain = 0
KWE1 190451Z 22005KT 09/03 A2993 RMK A01 T00930031  RH  065%=      5-min Rain = 0
KWE1 190452Z 22006KT 09/03 A2993 RMK A01 T00930031  RH  065%=      5-min Rain = 0
KWE1 190453Z 22006KT 09/03 A2993 RMK A01 T00940031  RH  065%=      5-min Rain = 0
KWE1 190454Z 22006KT 09/03 A2993 RMK A01 T00940032  RH  065%=      5-min Rain = 0
KWE1 190455Z 22006KT 09/03 A2993 RMK A01 T00940032  RH  065%=      5-min Rain = 0
KWE1 190456Z 22005KT 09/03 A2993 RMK A01 T00940032  RH  065%=      5-min Rain = 0
KWE1 190457Z 22005KT 10/03 A2993 RMK A01 T00950032  RH  065%=      5-min Rain = 0
KWE1 190458Z 22004KT 10/03 A2993 RMK A01 T00950032  RH  065%=      5-min Rain = 0
KWE1 190459Z 22005KT 10/03 A2993 RMK A01 T00950032  RH  065%=      5-min Rain = 0
KWE1 190500Z 22005KT 10/03 A2993 RMK A01 T00960033  RH  065%=      5-min Rain = 0
KWE1 190501Z 22005KT 10/03 A2993 RMK A01 T00960032  RH  065%=      5-min Rain = 0
KWE1 190502Z 22004KT 10/03 A2993 RMK A01 T00960032  RH  064%=      5-min Rain = 0
KWE1 190503Z 22004KT 10/03 A2993 RMK A01 T00960032  RH  064%=      5-min Rain = 0
KWE1 190504Z 22005KT 10/03 A2993 RMK A01 T00960031  RH  064%=      5-min Rain = 0
KWE1 190505Z 22005KT 09/03 A2993 RMK A01 T00940030  RH  064%=      5-min Rain = 0
KWE1 190506Z 22005KT 09/03 A2993 RMK A01 T00920030  RH  065%=      5-min Rain = 0
KWE1 190507Z 22005KT 09/03 A2993 RMK A01 T00910030  RH  065%=      5-min Rain = 0
KWE1 190508Z 22004KT 09/03 A2993 RMK A01 T00910030  RH  066%=      5-min Rain = 0
KWE1 190509Z 22004KT 09/03 A2993 RMK A01 T00910031  RH  066%=      5-min Rain = 0
KWE1 190510Z 22004KT 09/03 A2993 RMK A01 T00910031  RH  066%=      5-min Rain = 0
KWE1 190511Z 22004KT 09/03 A2993 RMK A01 T00900030  RH  066%=      5-min Rain = 0
KWE1 190512Z 22005KT 09/03 A2993 RMK A01 T00900030  RH  066%=      5-min Rain = 0
KWE1 190513Z 23005KT 09/03 A2993 RMK A01 T00900031  RH  066%=      5-min Rain = 0
KWE1 190514Z 23005KT 09/03 A2993 RMK A01 T00910031  RH  066%=      5-min Rain = 0
KWE1 190515Z 23005KT 09/03 A2993 RMK A01 T00900031  RH  066%=      5-min Rain = 0
KWE1 190516Z 23006KT 09/03 A2993 RMK A01 T00900030  RH  066%=      5-min Rain = 0
KWE1 190517Z 23006KT 09/03 A2993 RMK A01 T00890030  RH  066%=      5-min Rain = 0
KWE1 190518Z 23006KT 09/03 A2993 RMK A01 T00880030  RH  067%=      5-min Rain = 0
KWE1 190519Z 23005KT 09/03 A2993 RMK A01 T00880030  RH  067%=      5-min Rain = 0
KWE1 190520Z 23005KT 09/03 A2993 RMK A01 T00880030  RH  067%=      5-min Rain = 0
KWE1 190521Z 24005KT 09/03 A2993 RMK A01 T00880031  RH  067%=      5-min Rain = 0
KWE1 190522Z 23005KT 09/03 A2993 RMK A01 T00890031  RH  067%=      5-min Rain = 0
KWE1 190523Z 23005KT 09/03 A2993 RMK A01 T00890031  RH  067%=      5-min Rain = 0
KWE1 190524Z 23005KT 09/03 A2993 RMK A01 T00890031  RH  067%=      5-min Rain = 0
KWE1 190525Z 23005KT 09/03 A2993 RMK A01 T00890031  RH  067%=      5-min Rain = 0
KWE1 190526Z 23005KT 09/03 A2993 RMK A01 T00890031  RH  067%=      5-min Rain = 0
KWE1 190527Z 23005KT 09/03 A2994 RMK A01 T00890031  RH  067%=      5-min Rain = 0
KWE1 190528Z 23005KT 09/03 A2994 RMK A01 T00880030  RH  067%=      5-min Rain = 0
KWE1 190529Z 23005KT 09/03 A2994 RMK A01 T00880031  RH  067%=      5-min Rain = 0
KWE1 190530Z 23006KT 09/03 A2994 RMK A01 T00880031  RH  067%=      5-min Rain = 0
KWE1 190531Z 22006KT 09/03 A2994 RMK A01 T00880031  RH  067%=      5-min Rain = 0
KWE1 190532Z 22006KT 09/03 A2994 RMK A01 T00880031  RH  068%=      5-min Rain = 0
KWE1 190533Z 22006KT 09/03 A2994 RMK A01 T00880032  RH  068%=      5-min Rain = 0
KWE1 190534Z 22006KT 09/03 A2994 RMK A01 T00880032  RH  068%=      5-min Rain = 0
KWE1 190535Z 22005KT 09/03 A2994 RMK A01 T00880032  RH  068%=      5-min Rain = 0
KWE1 190536Z 22006KT 09/03 A2994 RMK A01 T00880032  RH  068%=      5-min Rain = 0
KWE1 190537Z 22006KT 09/03 A2994 RMK A01 T00880031  RH  068%=      5-min Rain = 0
KWE1 190538Z 22005KT 09/03 A2994 RMK A01 T00880032  RH  068%=      5-min Rain = 0
KWE1 190539Z 22005KT 09/03 A2994 RMK A01 T00880032  RH  068%=      5-min Rain = 0
KWE1 190540Z 22005KT 09/03 A2994 RMK A01 T00880032  RH  068%=      5-min Rain = 0
KWE1 190541Z 22006KT 09/03 A2994 RMK A01 T00880033  RH  068%=      5-min Rain = 0
KWE1 190542Z 22006KT 09/03 A2994 RMK A01 T00890033  RH  068%=      5-min Rain = 0
KWE1 190543Z 22006KT 09/03 A2994 RMK A01 T00890034  RH  068%=      5-min Rain = 0
KWE1 190544Z 22006KT 09/03 A2994 RMK A01 T00900034  RH  068%=      5-min Rain = 0
KWE1 190545Z 22006KT 09/03 A2994 RMK A01 T00900034  RH  068%=      5-min Rain = 0
KWE1 190546Z 22006KT 09/04 A2994 RMK A01 T00910035  RH  068%=      5-min Rain = 0
KWE1 190547Z 22006KT 09/03 A2993 RMK A01 T00900034  RH  068%=      5-min Rain = 0
KWE1 190548Z 23006KT 09/04 A2994 RMK A01 T00910035  RH  068%=      5-min Rain = 0
KWE1 190549Z 22006KT 09/04 A2993 RMK A01 T00910035  RH  068%=      5-min Rain = 0
KWE1 190550Z 22006KT 09/03 A2993 RMK A01 T00910034  RH  068%=      5-min Rain = 0
KWE1 190551Z 22006KT 09/03 A2993 RMK A01 T00900033  RH  068%=      5-min Rain = 0
KWE1 190552Z 22006KT 09/03 A2993 RMK A01 T00890033  RH  068%=      5-min Rain = 0
KWE1 190553Z 23005KT 09/03 A2993 RMK A01 T00890033  RH  068%=      5-min Rain = 0
KWE1 190554Z 22005KT 09/03 A2994 RMK A01 T00890033  RH  068%=      5-min Rain = 0
KWE1 190555Z 22005KT 09/03 A2994 RMK A01 T00880033  RH  068%=      5-min Rain = 0
KWE1 190556Z 22005KT 09/03 A2994 RMK A01 T00880033  RH  069%=      5-min Rain = 0
KWE1 190557Z 22005KT 09/03 A2994 RMK A01 T00880033  RH  069%=      5-min Rain = 0
KWE1 190558Z 22005KT 09/03 A2994 RMK A01 T00870033  RH  069%=      5-min Rain = 0
KWE1 190559Z 22005KT 09/03 A2994 RMK A01 T00860032  RH  069%=      5-min Rain = 0

Page generated in 0.1641 seconds.